| time (UTC) | temp F | wind direction | speed MPH | gust MPH | rain 1hr in | rain 24hr in | rain mn in | humidity % | barometer mb |
| 20260904125403 | 72 | 139 | 0.0 | 3.0 | 0.04 | 0.05 | 0.04 | 71 | 1016.3 |
| 20260904125203 | 72 | 113 | 0.0 | 1.0 | 0.04 | 0.05 | 0.04 | 70 | 1016.2 |
| 20260904125003 | 72 | 113 | 0.0 | 1.0 | 0.04 | 0.05 | 0.04 | 70 | 1016.2 |
| 20260904124803 | 72 | 113 | 0.0 | 1.0 | 0.04 | 0.05 | 0.04 | 70 | 1016.1 |
| 20260904124603 | 72 | 88 | 1.0 | 7.0 | 0.04 | 0.05 | 0.04 | 70 | 1016.2 |
| 20260904124403 | 72 | 89 | 2.0 | 9.0 | 0.04 | 0.05 | 0.04 | 70 | 1016.2 |
| 20260904124203 | 72 | 90 | 3.0 | 9.0 | 0.04 | 0.05 | 0.04 | 70 | 1016.2 |
| 20260904124003 | 72 | 89 | 5.0 | 13.0 | 0.04 | 0.05 | 0.04 | 70 | 1016.2 |
| 20260904123803 | 72 | 89 | 5.0 | 15.0 | 0.02 | 0.03 | 0.02 | 70 | 1016.3 |
| 20260904123603 | 72 | 89 | 4.0 | 15.0 | 0.01 | 0.02 | 0.01 | 70 | 1016.2 |
| 20260904123403 | 72 | 89 | 4.0 | 15.0 | 0.00 | 0.01 | 0.00 | 69 | 1016.5 |
| 20260904123203 | 72 | 89 | 2.0 | 15.0 | 0.00 | 0.01 | 0.00 | 69 | 1016.6 |
| 20260904123004 | 72 | 90 | 1.0 | 15.0 | 0.00 | 0.01 | 0.00 | 69 | 1016.4 |
| 20260904122824 | 72 | 94 | 0.0 | 4.0 | 0.00 | 0.01 | 0.00 | 69 | 1015.6 |
| 20260904122603 | 72 | 0 | 0.0 | 0.0 | 0.00 | 0.01 | 0.00 | 69 | 1015.2 |
| 20260904122424 | 72 | 0 | 0.0 | 0.0 | 0.00 | 0.01 | 0.00 | 69 | 1014.9 |
| 20260904122224 | 72 | 0 | 0.0 | 0.0 | 0.00 | 0.01 | 0.00 | 69 | 1014.9 |
| 20260904122003 | 72 | 0 | 0.0 | 0.0 | 0.00 | 0.01 | 0.00 | 69 | 1015.0 |
| 20260904121803 | 72 | 0 | 0.0 | 0.0 | 0.00 | 0.01 | 0.00 | 69 | 1015.0 |
| 20260904121603 | 72 | 0 | 0.0 | 0.0 | 0.00 | 0.01 | 0.00 | 69 | 1015.0 |
| 20260904121403 | 72 | 0 | 0.0 | 0.0 | 0.00 | 0.01 | 0.00 | 69 | 1015.0 |
| 20260904121203 | 72 | 0 | 0.0 | 0.0 | 0.00 | 0.01 | 0.00 | 69 | 1014.9 |
| 20260904121004 | 72 | 0 | 0.0 | 0.0 | 0.00 | 0.01 | 0.00 | 69 | 1014.8 |
| 20260904120803 | 72 | 245 | 0.0 | 2.0 | 0.00 | 0.01 | 0.00 | 69 | 1014.8 |
| 20260904120603 | 72 | 244 | 0.0 | 2.0 | 0.00 | 0.01 | 0.00 | 69 | 1014.8 |
| 20260904120424 | 72 | 243 | 0.0 | 2.0 | 0.00 | 0.01 | 0.00 | 69 | 1014.9 |
| 20260904120203 | 72 | 268 | 0.0 | 2.0 | 0.00 | 0.01 | 0.00 | 69 | 1015.0 |
| 20260904120024 | 72 | 268 | 0.0 | 2.0 | 0.00 | 0.01 | 0.00 | 69 | 1015.0 |
| 20260904115803 | 72 | 281 | 0.0 | 2.0 | 0.00 | 0.01 | 0.00 | 69 | 1015.1 |
| 20260904115603 | 72 | 279 | 0.0 | 2.0 | 0.00 | 0.01 | 0.00 | 69 | 1015.1 |
| 20260904115403 | 72 | 280 | 0.0 | 2.0 | 0.00 | 0.01 | 0.00 | 69 | 1015.1 |
| 20260904115203 | 72 | 206 | 0.0 | 2.0 | 0.00 | 0.01 | 0.00 | 69 | 1015.1 |
| 20260904115003 | 72 | 201 | 0.0 | 2.0 | 0.00 | 0.01 | 0.00 | 69 | 1015.1 |
| 20260904114803 | 72 | 197 | 0.0 | 4.0 | 0.00 | 0.01 | 0.00 | 69 | 1015.2 |
| 20260904114624 | 72 | 197 | 0.0 | 4.0 | 0.00 | 0.01 | 0.00 | 69 | 1015.2 |
| 20260904114403 | 72 | 195 | 0.0 | 4.0 | 0.00 | 0.01 | 0.00 | 69 | 1015.2 |
| 20260904114203 | 72 | 195 | 0.0 | 4.0 | 0.00 | 0.01 | 0.00 | 69 | 1015.2 |
| 20260904114003 | 72 | 195 | 0.0 | 4.0 | 0.00 | 0.01 | 0.00 | 69 | 1015.1 |
| 20260904113824 | 72 | 0 | 0.0 | 0.0 | 0.00 | 0.01 | 0.00 | 69 | 1015.1 |
| 20260904113603 | 72 | 0 | 0.0 | 0.0 | 0.00 | 0.01 | 0.00 | 69 | 1015.1 |
| 20260904113403 | 72 | 197 | 1.0 | 7.0 | 0.00 | 0.01 | 0.00 | 69 | 1015.1 |
| 20260904113203 | 72 | 194 | 1.0 | 7.0 | 0.00 | 0.01 | 0.00 | 69 | 1015.1 |
| 20260904113003 | 72 | 193 | 1.0 | 7.0 | 0.00 | 0.01 | 0.00 | 69 | 1015.1 |
| 20260904112803 | 72 | 193 | 1.0 | 7.0 | 0.00 | 0.01 | 0.00 | 69 | 1015.1 |
| 20260904112603 | 72 | 193 | 1.0 | 7.0 | 0.00 | 0.01 | 0.00 | 69 | 1015.2 |
| 20260904112403 | 72 | 189 | 0.0 | 5.0 | 0.00 | 0.01 | 0.00 | 69 | 1015.3 |
| 20260904112203 | 72 | 190 | 0.0 | 5.0 | 0.00 | 0.01 | 0.00 | 69 | 1015.3 |
| 20260904112003 | 72 | 191 | 0.0 | 5.0 | 0.00 | 0.01 | 0.00 | 69 | 1015.2 |
| 20260904111804 | 72 | 186 | 0.0 | 4.0 | 0.00 | 0.01 | 0.00 | 70 | 1015.2 |
| 20260904111603 | 72 | 178 | 0.0 | 1.0 | 0.00 | 0.01 | 0.00 | 70 | 1015.1 |
| 20260904111403 | 72 | 178 | 1.0 | 7.0 | 0.00 | 0.01 | 0.00 | 70 | 1015.0 |
| 20260904111203 | 72 | 180 | 1.0 | 7.0 | 0.00 | 0.01 | 0.00 | 71 | 1015.1 |
| 20260904111024 | 72 | 180 | 1.0 | 7.0 | 0.00 | 0.01 | 0.00 | 71 | 1015.2 |
| 20260904110803 | 72 | 180 | 1.0 | 7.0 | 0.00 | 0.01 | 0.00 | 71 | 1015.3 |
| 20260904110603 | 72 | 180 | 1.0 | 7.0 | 0.00 | 0.01 | 0.00 | 71 | 1015.3 |
| 20260904110424 | 72 | 180 | 0.0 | 6.0 | 0.00 | 0.01 | 0.00 | 71 | 1015.3 |
| 20260904110203 | 72 | 179 | 0.0 | 1.0 | 0.00 | 0.01 | 0.00 | 72 | 1015.3 |
| 20260904110003 | 71 | 179 | 0.0 | 1.0 | 0.00 | 0.01 | 0.00 | 72 | 1015.2 |
| 20260904105803 | 71 | 175 | 1.0 | 5.0 | 0.00 | 0.01 | 0.00 | 73 | 1015.1 |
| 20260904105624 | 71 | 171 | 1.0 | 6.0 | 0.00 | 0.01 | 0.00 | 73 | 1015.1 |
| 20260904105403 | 71 | 172 | 2.0 | 6.0 | 0.00 | 0.01 | 0.00 | 74 | 1015.2 |
| 20260904105203 | 71 | 170 | 3.0 | 6.0 | 0.00 | 0.01 | 0.00 | 74 | 1015.3 |
| 20260904105003 | 71 | 168 | 3.0 | 6.0 | 0.00 | 0.01 | 0.00 | 74 | 1015.2 |
| 20260904104803 | 70 | 170 | 3.0 | 6.0 | 0.00 | 0.01 | 0.00 | 74 | 1015.2 |
| 20260904104603 | 70 | 191 | 3.0 | 10.0 | 0.00 | 0.01 | 0.00 | 74 | 1015.2 |
| 20260904104403 | 70 | 180 | 3.0 | 10.0 | 0.00 | 0.01 | 0.00 | 75 | 1015.0 |
| 20260904104203 | 70 | 184 | 3.0 | 10.0 | 0.00 | 0.01 | 0.00 | 76 | 1014.9 |
| 20260904104003 | 70 | 189 | 3.0 | 10.0 | 0.00 | 0.01 | 0.00 | 77 | 1014.9 |
| 20260904103803 | 70 | 179 | 4.0 | 10.0 | 0.00 | 0.01 | 0.00 | 78 | 1014.5 |
| 20260904103603 | 70 | 169 | 5.0 | 14.0 | 0.00 | 0.01 | 0.00 | 74 | 1014.6 |
| 20260904103403 | 69 | 175 | 5.0 | 14.0 | 0.00 | 0.01 | 0.00 | 73 | 1014.7 |
| 20260904103224 | 69 | 177 | 6.0 | 14.0 | 0.00 | 0.01 | 0.00 | 73 | 1014.7 |
| 20260904103003 | 69 | 180 | 5.0 | 14.0 | 0.00 | 0.01 | 0.00 | 73 | 1014.7 |
| 20260904102803 | 69 | 182 | 4.0 | 14.0 | 0.00 | 0.01 | 0.00 | 73 | 1014.6 |
| 20260904102603 | 69 | 186 | 3.0 | 11.0 | 0.00 | 0.01 | 0.00 | 72 | 1014.6 |
| 20260904102424 | 69 | 188 | 2.0 | 11.0 | 0.00 | 0.01 | 0.00 | 72 | 1014.4 |
| 20260904102203 | 69 | 197 | 1.0 | 4.0 | 0.00 | 0.01 | 0.00 | 72 | 1014.3 |
| 20260904102003 | 70 | 203 | 0.0 | 3.0 | 0.00 | 0.01 | 0.00 | 72 | 1014.2 |
| 20260904101803 | 70 | 0 | 0.0 | 0.0 | 0.00 | 0.01 | 0.00 | 72 | 1014.0 |
| 20260904101603 | 70 | 0 | 0.0 | 0.0 | 0.00 | 0.01 | 0.00 | 72 | 1014.0 |
| 20260904101403 | 70 | 0 | 0.0 | 0.0 | 0.00 | 0.01 | 0.00 | 72 | 1013.9 |
| 20260904101203 | 70 | 0 | 0.0 | 0.0 | 0.00 | 0.01 | 0.00 | 72 | 1013.9 |
| 20260904101003 | 70 | 0 | 0.0 | 0.0 | 0.00 | 0.01 | 0.00 | 72 | 1013.9 |
| 20260904100803 | 70 | 0 | 0.0 | 0.0 | 0.00 | 0.01 | 0.00 | 72 | 1013.9 |
| 20260904100603 | 70 | 0 | 0.0 | 0.0 | 0.00 | 0.01 | 0.00 | 72 | 1013.8 |
| 20260904100403 | 70 | 0 | 0.0 | 0.0 | 0.00 | 0.01 | 0.00 | 72 | 1013.8 |
| 20260904100203 | 70 | 0 | 0.0 | 0.0 | 0.00 | 0.01 | 0.00 | 71 | 1013.9 |
| 20260904100003 | 70 | 0 | 0.0 | 0.0 | 0.00 | 0.01 | 0.00 | 71 | 1013.9 |
| 20260904095803 | 70 | 0 | 0.0 | 0.0 | 0.00 | 0.01 | 0.00 | 71 | 1014.0 |
| 20260904095603 | 70 | 0 | 0.0 | 0.0 | 0.00 | 0.01 | 0.00 | 71 | 1013.9 |
| 20260904095403 | 70 | 0 | 0.0 | 0.0 | 0.00 | 0.01 | 0.00 | 71 | 1013.9 |
| 20260904095224 | 70 | 0 | 0.0 | 0.0 | 0.00 | 0.01 | 0.00 | 71 | 1013.9 |
| 20260904095003 | 70 | 0 | 0.0 | 0.0 | 0.00 | 0.01 | 0.00 | 71 | 1013.9 |
| 20260904094803 | 70 | 0 | 0.0 | 0.0 | 0.00 | 0.01 | 0.00 | 71 | 1013.8 |
| 20260904094603 | 70 | 0 | 0.0 | 0.0 | 0.00 | 0.01 | 0.00 | 71 | 1013.9 |
| 20260904094403 | 70 | 0 | 0.0 | 0.0 | 0.00 | 0.01 | 0.00 | 71 | 1013.8 |
| 20260904094203 | 70 | 0 | 0.0 | 0.0 | 0.00 | 0.01 | 0.00 | 71 | 1013.8 |
| 20260904094003 | 70 | 0 | 0.0 | 0.0 | 0.00 | 0.01 | 0.00 | 71 | 1013.7 |
| 20260904093803 | 70 | 0 | 0.0 | 0.0 | 0.00 | 0.01 | 0.00 | 71 | 1013.7 |
| 20260904093603 | 70 | 0 | 0.0 | 0.0 | 0.00 | 0.01 | 0.00 | 71 | 1013.7 |
| 20260904093403 | 70 | 0 | 0.0 | 0.0 | 0.00 | 0.01 | 0.00 | 71 | 1013.6 |
| 20260904093203 | 70 | 0 | 0.0 | 0.0 | 0.00 | 0.01 | 0.00 | 71 | 1013.5 |
| 20260904093003 | 70 | 0 | 0.0 | 0.0 | 0.00 | 0.01 | 0.00 | 71 | 1013.4 |
| 20260904092803 | 70 | 0 | 0.0 | 0.0 | 0.00 | 0.01 | 0.00 | 71 | 1013.3 |
| 20260904092624 | 70 | 0 | 0.0 | 0.0 | 0.00 | 0.01 | 0.00 | 71 | 1013.3 |
| 20260904092424 | 70 | 0 | 0.0 | 0.0 | 0.00 | 0.01 | 0.00 | 71 | 1013.2 |
| 20260904092203 | 70 | 0 | 0.0 | 0.0 | 0.00 | 0.01 | 0.00 | 71 | 1013.1 |
| 20260904092003 | 70 | 0 | 0.0 | 0.0 | 0.00 | 0.01 | 0.00 | 71 | 1013.2 |
| 20260904091803 | 70 | 0 | 0.0 | 0.0 | 0.00 | 0.01 | 0.00 | 71 | 1013.2 |
| 20260904091624 | 70 | 0 | 0.0 | 0.0 | 0.00 | 0.01 | 0.00 | 71 | 1013.3 |
| 20260904091403 | 70 | 0 | 0.0 | 0.0 | 0.00 | 0.01 | 0.00 | 72 | 1013.4 |
| 20260904091203 | 70 | 0 | 0.0 | 0.0 | 0.00 | 0.01 | 0.00 | 72 | 1013.5 |
| 20260904091003 | 70 | 0 | 0.0 | 0.0 | 0.00 | 0.01 | 0.00 | 72 | 1013.5 |
| 20260904090803 | 70 | 0 | 0.0 | 0.0 | 0.00 | 0.01 | 0.00 | 72 | 1013.6 |
| 20260904090624 | 70 | 0 | 0.0 | 0.0 | 0.00 | 0.01 | 0.00 | 72 | 1013.6 |
| 20260904090403 | 70 | 0 | 0.0 | 0.0 | 0.00 | 0.01 | 0.00 | 73 | 1013.6 |
| 20260904090203 | 70 | 0 | 0.0 | 0.0 | 0.00 | 0.01 | 0.00 | 73 | 1013.6 |
| 20260904090003 | 70 | 0 | 0.0 | 0.0 | 0.00 | 0.01 | 0.00 | 73 | 1013.6 |
| 20260904085824 | 70 | 0 | 0.0 | 0.0 | 0.00 | 0.01 | 0.00 | 73 | 1013.7 |
| 20260904085603 | 69 | 0 | 0.0 | 0.0 | 0.00 | 0.01 | 0.00 | 73 | 1013.9 |
| 20260904085403 | 69 | 0 | 0.0 | 0.0 | 0.00 | 0.01 | 0.00 | 72 | 1014.0 |
| 20260904085203 | 69 | 0 | 0.0 | 0.0 | 0.00 | 0.01 | 0.00 | 72 | 1014.1 |
| 20260904085003 | 69 | 0 | 0.0 | 0.0 | 0.00 | 0.01 | 0.00 | 72 | 1014.1 |
| 20260904084803 | 69 | 0 | 0.0 | 0.0 | 0.00 | 0.01 | 0.00 | 72 | 1014.2 |
| 20260904084603 | 69 | 0 | 0.0 | 0.0 | 0.00 | 0.01 | 0.00 | 71 | 1014.1 |
| 20260904084424 | 69 | 0 | 0.0 | 0.0 | 0.00 | 0.01 | 0.00 | 72 | 1014.1 |
| 20260904084203 | 70 | 0 | 0.0 | 0.0 | 0.00 | 0.01 | 0.00 | 72 | 1014.1 |
| 20260904084003 | 70 | 0 | 0.0 | 0.0 | 0.00 | 0.01 | 0.00 | 72 | 1014.2 |
| 20260904083804 | 70 | 0 | 0.0 | 0.0 | 0.00 | 0.01 | 0.00 | 72 | 1014.2 |
| 20260904083603 | 70 | 0 | 0.0 | 0.0 | 0.00 | 0.01 | 0.00 | 72 | 1014.1 |
| 20260904083404 | 70 | 0 | 0.0 | 0.0 | 0.00 | 0.01 | 0.00 | 72 | 1014.1 |
| 20260904083203 | 70 | 0 | 0.0 | 0.0 | 0.00 | 0.01 | 0.00 | 72 | 1014.2 |
| 20260904083003 | 70 | 0 | 0.0 | 0.0 | 0.00 | 0.01 | 0.00 | 72 | 1014.1 |
| 20260904082824 | 70 | 0 | 0.0 | 0.0 | 0.00 | 0.01 | 0.00 | 72 | 1014.1 |
| 20260904082603 | 70 | 0 | 0.0 | 0.0 | 0.00 | 0.01 | 0.00 | 71 | 1014.0 |
| 20260904082403 | 70 | 0 | 0.0 | 0.0 | 0.00 | 0.01 | 0.00 | 71 | 1014.0 |
| 20260904082203 | 70 | 0 | 0.0 | 0.0 | 0.00 | 0.01 | 0.00 | 71 | 1013.9 |
| 20260904082003 | 70 | 0 | 0.0 | 0.0 | 0.00 | 0.01 | 0.00 | 71 | 1013.9 |
| 20260904081803 | 70 | 0 | 0.0 | 0.0 | 0.00 | 0.01 | 0.00 | 72 | 1014.0 |
| 20260904081603 | 70 | 0 | 0.0 | 0.0 | 0.00 | 0.01 | 0.00 | 71 | 1014.0 |
| 20260904081403 | 70 | 0 | 0.0 | 0.0 | 0.00 | 0.01 | 0.00 | 71 | 1014.1 |
| 20260904081224 | 70 | 0 | 0.0 | 0.0 | 0.00 | 0.01 | 0.00 | 72 | 1014.2 |
| 20260904081003 | 70 | 0 | 0.0 | 0.0 | 0.00 | 0.01 | 0.00 | 72 | 1014.3 |
| 20260904080803 | 70 | 0 | 0.0 | 0.0 | 0.00 | 0.01 | 0.00 | 71 | 1014.3 |
| 20260904080603 | 70 | 0 | 0.0 | 0.0 | 0.00 | 0.01 | 0.00 | 71 | 1014.3 |
| 20260904080424 | 70 | 0 | 0.0 | 0.0 | 0.00 | 0.01 | 0.00 | 71 | 1014.3 |
| 20260904080203 | 70 | 0 | 0.0 | 0.0 | 0.00 | 0.01 | 0.00 | 71 | 1014.3 |
| 20260904080003 | 70 | 0 | 0.0 | 0.0 | 0.00 | 0.01 | 0.00 | 71 | 1014.3 |
| 20260904075824 | 70 | 0 | 0.0 | 0.0 | 0.00 | 0.01 | 0.00 | 71 | 1014.3 |
| 20260904075624 | 70 | 0 | 0.0 | 0.0 | 0.00 | 0.01 | 0.00 | 71 | 1014.3 |
| 20260904075403 | 70 | 0 | 0.0 | 0.0 | 0.00 | 0.01 | 0.00 | 71 | 1014.2 |
| 20260904075203 | 70 | 0 | 0.0 | 0.0 | 0.00 | 0.01 | 0.00 | 71 | 1014.2 |
| 20260904075003 | 70 | 0 | 0.0 | 0.0 | 0.00 | 0.01 | 0.00 | 71 | 1014.1 |
| 20260904074803 | 70 | 0 | 0.0 | 0.0 | 0.00 | 0.01 | 0.00 | 71 | 1014.0 |
| 20260904074603 | 70 | 0 | 0.0 | 0.0 | 0.00 | 0.01 | 0.00 | 72 | 1014.0 |
| 20260904074424 | 70 | 0 | 0.0 | 0.0 | 0.00 | 0.01 | 0.00 | 72 | 1014.0 |
| 20260904074203 | 70 | 0 | 0.0 | 0.0 | 0.00 | 0.01 | 0.00 | 72 | 1014.0 |
| 20260904074003 | 70 | 0 | 0.0 | 0.0 | 0.00 | 0.01 | 0.00 | 72 | 1014.0 |
| 20260904073803 | 70 | 0 | 0.0 | 0.0 | 0.00 | 0.01 | 0.00 | 72 | 1014.1 |
| 20260904073603 | 70 | 0 | 0.0 | 0.0 | 0.00 | 0.01 | 0.00 | 72 | 1014.1 |
| 20260904073403 | 70 | 0 | 0.0 | 0.0 | 0.00 | 0.01 | 0.00 | 72 | 1014.1 |
| 20260904073203 | 70 | 0 | 0.0 | 0.0 | 0.00 | 0.01 | 0.00 | 72 | 1014.1 |
| 20260904073003 | 70 | 0 | 0.0 | 0.0 | 0.00 | 0.01 | 0.00 | 72 | 1014.2 |
| 20260904072803 | 70 | 0 | 0.0 | 0.0 | 0.00 | 0.01 | 0.00 | 72 | 1014.1 |
| 20260904072603 | 70 | 0 | 0.0 | 0.0 | 0.00 | 0.01 | 0.00 | 72 | 1014.1 |
| 20260904072424 | 70 | 0 | 0.0 | 0.0 | 0.00 | 0.01 | 0.00 | 72 | 1014.1 |
| 20260904072203 | 70 | 0 | 0.0 | 0.0 | 0.00 | 0.01 | 0.00 | 72 | 1014.1 |
| 20260904072024 | 70 | 0 | 0.0 | 0.0 | 0.00 | 0.01 | 0.00 | 72 | 1014.2 |
| 20260904071803 | 70 | 0 | 0.0 | 0.0 | 0.00 | 0.01 | 0.00 | 72 | 1014.1 |
| 20260904071603 | 70 | 0 | 0.0 | 0.0 | 0.00 | 0.01 | 0.00 | 72 | 1014.1 |
| 20260904071403 | 70 | 0 | 0.0 | 0.0 | 0.00 | 0.01 | 0.00 | 73 | 1014.1 |
| 20260904071203 | 70 | 0 | 0.0 | 0.0 | 0.00 | 0.01 | 0.00 | 73 | 1014.2 |
| 20260904071003 | 70 | 0 | 0.0 | 0.0 | 0.00 | 0.01 | 0.00 | 73 | 1014.3 |
| 20260904070803 | 70 | 0 | 0.0 | 0.0 | 0.00 | 0.01 | 0.00 | 73 | 1014.3 |
| 20260904070624 | 69 | 0 | 0.0 | 0.0 | 0.00 | 0.01 | 0.00 | 73 | 1014.3 |
| 20260904070403 | 69 | 0 | 0.0 | 0.0 | 0.00 | 0.01 | 0.00 | 73 | 1014.4 |
| 20260904070203 | 69 | 0 | 0.0 | 0.0 | 0.00 | 0.01 | 0.00 | 73 | 1014.5 |
| 20260904070003 | 69 | 0 | 0.0 | 0.0 | 0.00 | 0.01 | 0.00 | 73 | 1014.5 |
| 20260904065824 | 69 | 0 | 0.0 | 0.0 | 0.00 | 0.01 | 0.00 | 73 | 1014.6 |
| 20260904065603 | 69 | 0 | 0.0 | 0.0 | 0.00 | 0.01 | 0.00 | 73 | 1014.6 |
| 20260904065403 | 69 | 0 | 0.0 | 0.0 | 0.00 | 0.01 | 0.00 | 73 | 1014.7 |
| 20260904065203 | 69 | 0 | 0.0 | 0.0 | 0.00 | 0.01 | 0.00 | 73 | 1014.7 |
| 20260904065003 | 69 | 0 | 0.0 | 0.0 | 0.00 | 0.01 | 0.00 | 73 | 1014.8 |
| 20260904064803 | 69 | 0 | 0.0 | 0.0 | 0.00 | 0.01 | 0.00 | 73 | 1014.9 |
| 20260904064603 | 69 | 0 | 0.0 | 0.0 | 0.00 | 0.01 | 0.00 | 72 | 1014.9 |
| 20260904064403 | 69 | 0 | 0.0 | 0.0 | 0.00 | 0.01 | 0.00 | 72 | 1014.9 |
| 20260904064203 | 69 | 0 | 0.0 | 0.0 | 0.00 | 0.01 | 0.00 | 72 | 1015.0 |
| 20260904064003 | 69 | 0 | 0.0 | 0.0 | 0.00 | 0.01 | 0.00 | 72 | 1014.9 |
| 20260904063803 | 69 | 0 | 0.0 | 0.0 | 0.00 | 0.01 | 0.00 | 72 | 1014.9 |
| 20260904063603 | 69 | 0 | 0.0 | 0.0 | 0.00 | 0.01 | 0.00 | 72 | 1014.9 |
| 20260904063403 | 69 | 0 | 0.0 | 0.0 | 0.00 | 0.01 | 0.00 | 72 | 1015.0 |
| 20260904063203 | 69 | 0 | 0.0 | 0.0 | 0.00 | 0.01 | 0.00 | 72 | 1015.0 |
| 20260904063003 | 69 | 0 | 0.0 | 0.0 | 0.00 | 0.01 | 0.00 | 72 | 1015.1 |
| 20260904062803 | 69 | 0 | 0.0 | 0.0 | 0.00 | 0.01 | 0.00 | 72 | 1015.1 |
| 20260904062603 | 69 | 0 | 0.0 | 0.0 | 0.00 | 0.01 | 0.00 | 72 | 1015.1 |
| 20260904062403 | 69 | 0 | 0.0 | 0.0 | 0.00 | 0.01 | 0.00 | 72 | 1015.1 |
| 20260904062203 | 69 | 0 | 0.0 | 0.0 | 0.00 | 0.01 | 0.00 | 72 | 1015.2 |
| 20260904062003 | 69 | 0 | 0.0 | 0.0 | 0.00 | 0.01 | 0.00 | 72 | 1015.2 |
| 20260904061803 | 69 | 203 | 0.0 | 1.0 | 0.00 | 0.01 | 0.00 | 72 | 1015.2 |
| 20260904061603 | 69 | 203 | 0.0 | 1.0 | 0.00 | 0.01 | 0.00 | 72 | 1015.1 |
| 20260904061403 | 69 | 203 | 0.0 | 1.0 | 0.00 | 0.01 | 0.00 | 72 | 1015.1 |
| 20260904061203 | 69 | 203 | 0.0 | 1.0 | 0.00 | 0.01 | 0.00 | 72 | 1015.3 |
| 20260904061003 | 69 | 203 | 0.0 | 1.0 | 0.00 | 0.01 | 0.00 | 72 | 1015.3 |
| 20260904060803 | 69 | 0 | 0.0 | 0.0 | 0.00 | 0.01 | 0.00 | 72 | 1015.3 |
| 20260904060603 | 69 | 0 | 0.0 | 0.0 | 0.00 | 0.01 | 0.00 | 72 | 1015.3 |
| 20260904060403 | 69 | 0 | 0.0 | 0.0 | 0.00 | 0.01 | 0.00 | 72 | 1015.4 |
| 20260904060224 | 69 | 0 | 0.0 | 0.0 | 0.00 | 0.01 | 0.00 | 72 | 1015.5 |
| 20260904060003 | 69 | 0 | 0.0 | 0.0 | 0.00 | 0.01 | 0.00 | 72 | 1015.5 |
| 20260904055824 | 69 | 0 | 0.0 | 0.0 | 0.00 | 0.01 | 0.00 | 72 | 1015.5 |
| 20260904055624 | 69 | 0 | 0.0 | 0.0 | 0.00 | 0.01 | 0.00 | 72 | 1015.5 |
| 20260904055403 | 69 | 0 | 0.0 | 0.0 | 0.00 | 0.01 | 0.00 | 72 | 1015.4 |
| 20260904055203 | 69 | 0 | 0.0 | 0.0 | 0.00 | 0.01 | 0.00 | 72 | 1015.4 |
| 20260904055003 | 69 | 0 | 0.0 | 0.0 | 0.00 | 0.01 | 0.00 | 72 | 1015.4 |
| 20260904054803 | 69 | 203 | 0.0 | 1.0 | 0.00 | 0.01 | 0.00 | 72 | 1015.4 |
| 20260904054603 | 69 | 203 | 0.0 | 1.0 | 0.00 | 0.01 | 0.00 | 72 | 1015.4 |
| 20260904054403 | 69 | 203 | 0.0 | 1.0 | 0.00 | 0.01 | 0.00 | 72 | 1015.3 |
| 20260904054203 | 69 | 203 | 0.0 | 1.0 | 0.00 | 0.01 | 0.00 | 72 | 1015.3 |
| 20260904054003 | 69 | 203 | 0.0 | 1.0 | 0.00 | 0.01 | 0.00 | 72 | 1015.3 |
| 20260904053803 | 69 | 203 | 0.0 | 1.0 | 0.00 | 0.01 | 0.00 | 72 | 1015.3 |
| 20260904053603 | 69 | 203 | 0.0 | 1.0 | 0.00 | 0.01 | 0.00 | 72 | 1015.2 |
| 20260904053403 | 69 | 203 | 0.0 | 1.0 | 0.00 | 0.01 | 0.00 | 72 | 1015.3 |
| 20260904053203 | 69 | 203 | 0.0 | 1.0 | 0.00 | 0.01 | 0.00 | 72 | 1015.3 |
| 20260904053003 | 69 | 0 | 0.0 | 0.0 | 0.00 | 0.01 | 0.00 | 72 | 1015.2 |
| 20260904052803 | 69 | 0 | 0.0 | 0.0 | 0.00 | 0.01 | 0.00 | 72 | 1015.2 |
| 20260904052603 | 69 | 0 | 0.0 | 0.0 | 0.00 | 0.01 | 0.00 | 72 | 1015.1 |
| 20260904052403 | 69 | 203 | 0.0 | 1.0 | 0.00 | 0.01 | 0.00 | 72 | 1015.1 |
| 20260904052203 | 69 | 203 | 0.0 | 1.0 | 0.00 | 0.01 | 0.00 | 72 | 1015.1 |
| 20260904052003 | 69 | 203 | 0.0 | 1.0 | 0.00 | 0.01 | 0.00 | 72 | 1015.3 |
| 20260904051803 | 69 | 203 | 0.0 | 1.0 | 0.00 | 0.01 | 0.00 | 72 | 1015.3 |
| 20260904051603 | 69 | 203 | 0.0 | 1.0 | 0.00 | 0.01 | 0.00 | 72 | 1015.3 |
| 20260904051403 | 69 | 203 | 0.0 | 1.0 | 0.00 | 0.01 | 0.00 | 72 | 1015.3 |
| 20260904051203 | 69 | 203 | 0.0 | 1.0 | 0.00 | 0.01 | 0.00 | 72 | 1015.3 |
| 20260904051003 | 69 | 203 | 0.0 | 1.0 | 0.00 | 0.01 | 0.00 | 72 | 1015.4 |
| 20260904050803 | 69 | 203 | 0.0 | 1.0 | 0.00 | 0.01 | 0.00 | 72 | 1015.4 |
| 20260904050624 | 69 | 203 | 0.0 | 1.0 | 0.00 | 0.01 | 0.00 | 71 | 1015.4 |
| 20260904050403 | 69 | 203 | 0.0 | 1.0 | 0.00 | 0.01 | 0.00 | 71 | 1015.4 |
| 20260904050203 | 69 | 203 | 0.0 | 1.0 | 0.00 | 0.01 | 0.00 | 72 | 1015.4 |
| 20260904050003 | 69 | 203 | 0.0 | 1.0 | 0.00 | 0.01 | 0.00 | 72 | 1015.4 |
| 20260904045803 | 70 | 203 | 0.0 | 1.0 | 0.00 | 0.01 | 0.00 | 72 | 1015.3 |
| 20260904045603 | 69 | 203 | 0.0 | 1.0 | 0.00 | 0.01 | 0.00 | 72 | 1015.4 |
| 20260904045403 | 69 | 203 | 0.0 | 1.0 | 0.00 | 0.01 | 0.00 | 72 | 1015.4 |
| 20260904045203 | 69 | 203 | 0.0 | 1.0 | 0.00 | 0.01 | 0.00 | 72 | 1015.4 |
| 20260904045003 | 69 | 203 | 0.0 | 1.0 | 0.00 | 0.01 | 0.00 | 72 | 1015.4 |
| 20260904044803 | 70 | 203 | 0.0 | 1.0 | 0.00 | 0.01 | 0.00 | 72 | 1015.4 |
| 20260904044603 | 69 | 203 | 0.0 | 1.0 | 0.00 | 0.01 | 0.00 | 71 | 1015.5 |
| 20260904044403 | 69 | 203 | 0.0 | 1.0 | 0.00 | 0.01 | 0.00 | 71 | 1015.5 |
| 20260904044203 | 70 | 203 | 0.0 | 1.0 | 0.00 | 0.01 | 0.00 | 71 | 1015.5 |
| 20260904044003 | 70 | 203 | 0.0 | 1.0 | 0.00 | 0.01 | 0.00 | 71 | 1015.5 |
| 20260904043803 | 70 | 203 | 0.0 | 1.0 | 0.00 | 0.01 | 0.00 | 71 | 1015.5 |
| 20260904043603 | 70 | 203 | 0.0 | 1.0 | 0.00 | 0.01 | 0.00 | 70 | 1015.5 |
| 20260904043403 | 70 | 203 | 0.0 | 1.0 | 0.00 | 0.01 | 0.00 | 70 | 1015.5 |
| 20260904043203 | 70 | 0 | 0.0 | 0.0 | 0.00 | 0.01 | 0.00 | 70 | 1015.5 |
| 20260904043024 | 70 | 203 | 0.0 | 1.0 | 0.00 | 0.01 | 0.00 | 70 | 1015.5 |
| 20260904042803 | 70 | 203 | 0.0 | 1.0 | 0.00 | 0.01 | 0.00 | 70 | 1015.5 |
| 20260904042603 | 70 | 203 | 0.0 | 1.0 | 0.00 | 0.01 | 0.00 | 70 | 1015.5 |
| 20260904042403 | 70 | 203 | 0.0 | 1.0 | 0.00 | 0.01 | 0.00 | 70 | 1015.5 |
| 20260904042203 | 70 | 203 | 0.0 | 1.0 | 0.00 | 0.01 | 0.00 | 70 | 1015.6 |
| 20260904042003 | 70 | 203 | 0.0 | 1.0 | 0.00 | 0.01 | 0.00 | 70 | 1015.6 |
| 20260904041803 | 70 | 203 | 0.0 | 1.0 | 0.00 | 0.01 | 0.00 | 71 | 1015.6 |
| 20260904041624 | 70 | 203 | 0.0 | 1.0 | 0.00 | 0.01 | 0.00 | 71 | 1015.5 |
| 20260904041403 | 70 | 203 | 0.0 | 1.0 | 0.00 | 0.01 | 0.00 | 71 | 1015.6 |
| 20260904041203 | 70 | 203 | 0.0 | 1.0 | 0.00 | 0.01 | 0.00 | 71 | 1015.6 |
| 20260904041024 | 70 | 0 | 0.0 | 0.0 | 0.00 | 0.01 | 0.00 | 71 | 1015.6 |
| 20260904040803 | 70 | 0 | 0.0 | 0.0 | 0.00 | 0.01 | 0.00 | 71 | 1015.6 |
| 20260904040603 | 70 | 0 | 0.0 | 0.0 | 0.00 | 0.01 | 0.00 | 71 | 1015.6 |
| 20260904040424 | 70 | 0 | 0.0 | 0.0 | 0.00 | 0.01 | 0.00 | 71 | 1015.6 |
| 20260904040203 | 70 | 0 | 0.0 | 0.0 | 0.00 | 0.01 | 0.00 | 71 | 1015.6 |
| 20260904040004 | 70 | 0 | 0.0 | 0.0 | 0.00 | 0.01 | 0.00 | 71 | 1015.7 |
| 20260904035803 | 70 | 0 | 0.0 | 0.0 | 0.00 | 0.01 | 0.01 | 71 | 1015.7 |
| 20260904035603 | 70 | 0 | 0.0 | 0.0 | 0.00 | 0.01 | 0.01 | 71 | 1015.7 |
| 20260904035403 | 70 | 0 | 0.0 | 0.0 | 0.00 | 0.01 | 0.01 | 71 | 1015.7 |
| 20260904035203 | 70 | 0 | 0.0 | 0.0 | 0.00 | 0.01 | 0.01 | 71 | 1015.7 |
| 20260904035024 | 70 | 0 | 0.0 | 0.0 | 0.00 | 0.01 | 0.01 | 71 | 1015.7 |
| 20260904034803 | 70 | 0 | 0.0 | 0.0 | 0.00 | 0.01 | 0.01 | 71 | 1015.7 |
| 20260904034603 | 70 | 0 | 0.0 | 0.0 | 0.00 | 0.01 | 0.01 | 71 | 1015.7 |
| 20260904034403 | 70 | 203 | 0.0 | 1.0 | 0.00 | 0.01 | 0.01 | 71 | 1015.7 |
| 20260904034224 | 70 | 203 | 0.0 | 1.0 | 0.00 | 0.01 | 0.01 | 71 | 1015.7 |
| 20260904034003 | 70 | 203 | 0.0 | 1.0 | 0.00 | 0.01 | 0.01 | 70 | 1015.7 |
| 20260904033803 | 70 | 203 | 0.0 | 1.0 | 0.00 | 0.01 | 0.01 | 70 | 1015.7 |
| 20260904033603 | 70 | 203 | 0.0 | 1.0 | 0.00 | 0.01 | 0.01 | 70 | 1015.6 |
| 20260904033403 | 70 | 203 | 0.0 | 1.0 | 0.00 | 0.01 | 0.01 | 70 | 1015.7 |
| 20260904033203 | 70 | 203 | 0.0 | 1.0 | 0.00 | 0.01 | 0.01 | 70 | 1015.6 |
| 20260904033003 | 70 | 0 | 0.0 | 0.0 | 0.00 | 0.01 | 0.01 | 70 | 1015.7 |
| 20260904032803 | 70 | 0 | 0.0 | 0.0 | 0.00 | 0.01 | 0.01 | 70 | 1015.7 |
| 20260904032603 | 70 | 203 | 0.0 | 1.0 | 0.00 | 0.01 | 0.01 | 70 | 1015.7 |
| 20260904032424 | 70 | 203 | 0.0 | 1.0 | 0.00 | 0.01 | 0.01 | 70 | 1015.7 |
| 20260904032203 | 70 | 203 | 0.0 | 1.0 | 0.00 | 0.01 | 0.01 | 69 | 1015.7 |
| 20260904032003 | 71 | 203 | 0.0 | 1.0 | 0.00 | 0.01 | 0.01 | 69 | 1015.8 |
| 20260904031803 | 71 | 203 | 0.0 | 2.0 | 0.00 | 0.01 | 0.01 | 69 | 1015.7 |
| 20260904031603 | 71 | 203 | 1.0 | 2.0 | 0.00 | 0.01 | 0.01 | 70 | 1015.7 |
| 20260904031403 | 71 | 203 | 1.0 | 2.0 | 0.00 | 0.01 | 0.01 | 69 | 1015.7 |
| 20260904031203 | 71 | 203 | 1.0 | 2.0 | 0.00 | 0.01 | 0.01 | 69 | 1015.7 |
| 20260904031024 | 71 | 203 | 1.0 | 2.0 | 0.00 | 0.01 | 0.01 | 69 | 1015.7 |
| 20260904030803 | 71 | 203 | 1.0 | 2.0 | 0.00 | 0.01 | 0.01 | 69 | 1015.7 |
| 20260904030603 | 71 | 203 | 0.0 | 2.0 | 0.00 | 0.01 | 0.01 | 69 | 1015.8 |
| 20260904030403 | 71 | 203 | 0.0 | 1.0 | 0.00 | 0.01 | 0.01 | 69 | 1015.8 |
| 20260904030203 | 71 | 203 | 0.0 | 1.0 | 0.00 | 0.01 | 0.01 | 69 | 1015.7 |
| 20260904030024 | 71 | 203 | 0.0 | 1.0 | 0.00 | 0.01 | 0.01 | 69 | 1015.7 |
| 20260904025803 | 71 | 0 | 0.0 | 0.0 | 0.00 | 0.01 | 0.01 | 69 | 1015.7 |
| 20260904025603 | 71 | 0 | 0.0 | 0.0 | 0.00 | 0.01 | 0.01 | 69 | 1015.7 |
| 20260904025403 | 71 | 0 | 0.0 | 0.0 | 0.00 | 0.01 | 0.01 | 68 | 1015.6 |
| 20260904025203 | 71 | 0 | 0.0 | 0.0 | 0.00 | 0.01 | 0.01 | 68 | 1015.6 |
| 20260904025024 | 71 | 0 | 0.0 | 0.0 | 0.00 | 0.01 | 0.01 | 68 | 1015.6 |
| 20260904024803 | 71 | 0 | 0.0 | 0.0 | 0.00 | 0.01 | 0.01 | 68 | 1015.5 |
| 20260904024603 | 71 | 0 | 0.0 | 0.0 | 0.00 | 0.01 | 0.01 | 68 | 1015.5 |
| 20260904024403 | 71 | 0 | 0.0 | 0.0 | 0.00 | 0.01 | 0.01 | 68 | 1015.4 |
| 20260904024203 | 71 | 0 | 0.0 | 0.0 | 0.00 | 0.01 | 0.01 | 68 | 1015.4 |
| 20260904024003 | 72 | 0 | 0.0 | 0.0 | 0.00 | 0.01 | 0.01 | 68 | 1015.4 |
| 20260904023803 | 72 | 0 | 0.0 | 0.0 | 0.00 | 0.01 | 0.01 | 67 | 1015.4 |
| 20260904023603 | 72 | 0 | 0.0 | 0.0 | 0.00 | 0.01 | 0.01 | 67 | 1015.4 |
| 20260904023403 | 72 | 0 | 0.0 | 0.0 | 0.00 | 0.01 | 0.01 | 68 | 1015.4 |
| 20260904023203 | 72 | 0 | 0.0 | 0.0 | 0.00 | 0.01 | 0.01 | 67 | 1015.4 |
| 20260904023003 | 72 | 0 | 0.0 | 0.0 | 0.00 | 0.01 | 0.01 | 67 | 1015.4 |
| 20260904022803 | 72 | 0 | 0.0 | 0.0 | 0.00 | 0.01 | 0.01 | 67 | 1015.4 |
| 20260904022604 | 72 | 0 | 0.0 | 0.0 | 0.00 | 0.01 | 0.01 | 67 | 1015.4 |
| 20260904022403 | 72 | 0 | 0.0 | 0.0 | 0.00 | 0.01 | 0.01 | 68 | 1015.4 |
| 20260904022203 | 72 | 0 | 0.0 | 0.0 | 0.00 | 0.01 | 0.01 | 67 | 1015.4 |
| 20260904022003 | 72 | 0 | 0.0 | 0.0 | 0.00 | 0.01 | 0.01 | 67 | 1015.4 |
| 20260904021803 | 72 | 0 | 0.0 | 0.0 | 0.00 | 0.01 | 0.01 | 67 | 1015.5 |
| 20260904021603 | 72 | 0 | 0.0 | 0.0 | 0.00 | 0.01 | 0.01 | 67 | 1015.4 |
| 20260904021403 | 72 | 0 | 0.0 | 0.0 | 0.00 | 0.01 | 0.01 | 67 | 1015.4 |
| 20260904021203 | 72 | 0 | 0.0 | 0.0 | 0.00 | 0.01 | 0.01 | 67 | 1015.4 |
| 20260904021003 | 72 | 0 | 0.0 | 0.0 | 0.00 | 0.01 | 0.01 | 67 | 1015.4 |
| 20260904020803 | 72 | 0 | 0.0 | 0.0 | 0.00 | 0.01 | 0.01 | 66 | 1015.4 |
| 20260904020624 | 72 | 0 | 0.0 | 0.0 | 0.00 | 0.01 | 0.01 | 66 | 1015.4 |
| 20260904020403 | 72 | 0 | 0.0 | 0.0 | 0.00 | 0.01 | 0.01 | 66 | 1015.4 |
| 20260904020203 | 73 | 203 | 0.0 | 1.0 | 0.00 | 0.01 | 0.01 | 66 | 1015.3 |
| 20260904020024 | 73 | 203 | 0.0 | 1.0 | 0.00 | 0.01 | 0.01 | 66 | 1015.4 |
| 20260904015803 | 73 | 203 | 0.0 | 1.0 | 0.00 | 0.01 | 0.01 | 66 | 1015.4 |
| 20260904015603 | 73 | 203 | 0.0 | 2.0 | 0.00 | 0.01 | 0.01 | 67 | 1015.4 |
| 20260904015403 | 72 | 203 | 1.0 | 2.0 | 0.00 | 0.01 | 0.01 | 67 | 1015.4 |
| 20260904015203 | 72 | 203 | 1.0 | 3.0 | 0.00 | 0.01 | 0.01 | 67 | 1015.4 |
| 20260904015003 | 72 | 203 | 1.0 | 3.0 | 0.00 | 0.01 | 0.01 | 67 | 1015.4 |
| 20260904014804 | 72 | 214 | 2.0 | 3.0 | 0.00 | 0.01 | 0.01 | 67 | 1015.5 |
| 20260904014603 | 72 | 221 | 2.0 | 3.0 | 0.00 | 0.01 | 0.01 | 67 | 1015.5 |
| 20260904014403 | 72 | 229 | 2.0 | 3.0 | 0.00 | 0.01 | 0.01 | 67 | 1015.5 |
| 20260904014224 | 72 | 239 | 1.0 | 3.0 | 0.00 | 0.01 | 0.01 | 66 | 1015.5 |
| 20260904014003 | 73 | 271 | 1.0 | 3.0 | 0.00 | 0.01 | 0.01 | 66 | 1015.6 |
| 20260904013824 | 73 | 280 | 1.0 | 2.0 | 0.00 | 0.01 | 0.01 | 66 | 1015.6 |
| 20260904013603 | 73 | 281 | 1.0 | 2.0 | 0.00 | 0.01 | 0.01 | 66 | 1015.6 |
| 20260904013403 | 73 | 282 | 0.0 | 2.0 | 0.00 | 0.01 | 0.01 | 66 | 1015.5 |
| 20260904013203 | 74 | 284 | 0.0 | 2.0 | 0.00 | 0.01 | 0.01 | 65 | 1015.5 |
| 20260904013005 | 74 | 302 | 0.0 | 1.0 | 0.00 | 0.01 | 0.01 | 65 | 1015.5 |
| 20260904012803 | 74 | 0 | 0.0 | 0.0 | 0.00 | 0.01 | 0.01 | 65 | 1015.5 |
| 20260904012624 | 74 | 0 | 0.0 | 0.0 | 0.00 | 0.01 | 0.01 | 65 | 1015.5 |
| 20260904012403 | 74 | 0 | 0.0 | 0.0 | 0.00 | 0.01 | 0.01 | 65 | 1015.4 |
| 20260904012224 | 74 | 0 | 0.0 | 0.0 | 0.00 | 0.01 | 0.01 | 65 | 1015.5 |
| 20260904012003 | 74 | 0 | 0.0 | 0.0 | 0.00 | 0.01 | 0.01 | 65 | 1015.4 |
| 20260904011803 | 74 | 0 | 0.0 | 0.0 | 0.00 | 0.01 | 0.01 | 64 | 1015.4 |
| 20260904011624 | 74 | 0 | 0.0 | 0.0 | 0.00 | 0.01 | 0.01 | 64 | 1015.4 |
| 20260904011403 | 74 | 302 | 0.0 | 2.0 | 0.00 | 0.01 | 0.01 | 64 | 1015.4 |
| 20260904011224 | 74 | 302 | 0.0 | 2.0 | 0.00 | 0.01 | 0.01 | 64 | 1015.4 |
| 20260904011003 | 74 | 302 | 0.0 | 2.0 | 0.00 | 0.01 | 0.01 | 64 | 1015.3 |
| 20260904010803 | 74 | 302 | 0.0 | 2.0 | 0.00 | 0.01 | 0.01 | 64 | 1015.2 |
| 20260904010603 | 74 | 302 | 0.0 | 2.0 | 0.00 | 0.01 | 0.01 | 64 | 1015.1 |
| 20260904010403 | 74 | 302 | 0.0 | 2.0 | 0.00 | 0.01 | 0.01 | 64 | 1015.1 |
| 20260904010224 | 74 | 302 | 0.0 | 2.0 | 0.00 | 0.01 | 0.01 | 64 | 1015.1 |
| 20260904010003 | 74 | 302 | 0.0 | 2.0 | 0.00 | 0.01 | 0.01 | 64 | 1015.1 |
| 20260904005803 | 74 | 302 | 0.0 | 2.0 | 0.00 | 0.01 | 0.01 | 64 | 1015.1 |
| 20260904005603 | 74 | 302 | 0.0 | 2.0 | 0.00 | 0.01 | 0.01 | 64 | 1015.1 |
| 20260904005403 | 74 | 302 | 0.0 | 2.0 | 0.00 | 0.01 | 0.01 | 64 | 1015.1 |
| 20260904005203 | 74 | 302 | 0.0 | 2.0 | 0.00 | 0.01 | 0.01 | 64 | 1015.2 |
| 20260904005024 | 74 | 302 | 0.0 | 2.0 | 0.00 | 0.01 | 0.01 | 64 | 1015.2 |
| 20260904004803 | 74 | 302 | 0.0 | 2.0 | 0.00 | 0.01 | 0.01 | 64 | 1015.1 |
| 20260904004603 | 74 | 306 | 0.0 | 2.0 | 0.00 | 0.01 | 0.01 | 64 | 1015.0 |
| 20260904004403 | 75 | 313 | 1.0 | 2.0 | 0.00 | 0.01 | 0.01 | 64 | 1015.0 |
| 20260904004203 | 75 | 319 | 1.0 | 2.0 | 0.00 | 0.01 | 0.01 | 64 | 1015.0 |
| 20260904004003 | 75 | 321 | 1.0 | 2.0 | 0.00 | 0.01 | 0.01 | 64 | 1015.0 |
| 20260904003803 | 75 | 327 | 0.0 | 2.0 | 0.00 | 0.01 | 0.01 | 64 | 1015.0 |
| 20260904003603 | 75 | 333 | 0.0 | 2.0 | 0.00 | 0.01 | 0.01 | 64 | 1015.0 |
| 20260904003403 | 75 | 333 | 0.0 | 2.0 | 0.00 | 0.01 | 0.01 | 64 | 1015.0 |
| 20260904003203 | 75 | 333 | 0.0 | 2.0 | 0.00 | 0.01 | 0.01 | 64 | 1015.0 |
| 20260904003003 | 75 | 333 | 0.0 | 1.0 | 0.00 | 0.01 | 0.01 | 64 | 1015.0 |
| 20260904002803 | 75 | 333 | 0.0 | 2.0 | 0.00 | 0.01 | 0.01 | 64 | 1015.0 |
| 20260904002603 | 75 | 333 | 0.0 | 2.0 | 0.00 | 0.01 | 0.01 | 64 | 1015.0 |
| 20260904002403 | 75 | 333 | 0.0 | 2.0 | 0.00 | 0.01 | 0.01 | 64 | 1015.0 |
| 20260904002203 | 75 | 336 | 0.0 | 2.0 | 0.00 | 0.01 | 0.01 | 63 | 1015.0 |
| 20260904002003 | 75 | 344 | 0.0 | 2.0 | 0.00 | 0.01 | 0.01 | 63 | 1015.1 |
| 20260904001803 | 76 | 349 | 0.0 | 2.0 | 0.00 | 0.01 | 0.01 | 63 | 1015.0 |
| 20260904001603 | 76 | 1 | 0.0 | 2.0 | 0.00 | 0.01 | 0.01 | 63 | 1015.1 |
| 20260904001403 | 76 | 1 | 0.0 | 2.0 | 0.00 | 0.01 | 0.01 | 63 | 1015.1 |
| 20260904001203 | 76 | 1 | 0.0 | 2.0 | 0.00 | 0.01 | 0.01 | 63 | 1015.1 |
| 20260904001003 | 76 | 1 | 0.0 | 1.0 | 0.00 | 0.01 | 0.01 | 63 | 1015.1 |
| 20260904000824 | 76 | 1 | 0.0 | 1.0 | 0.00 | 0.01 | 0.01 | 63 | 1015.0 |
| 20260904000603 | 76 | 1 | 0.0 | 1.0 | 0.00 | 0.01 | 0.01 | 63 | 1015.1 |
| 20260904000403 | 76 | 1 | 0.0 | 1.0 | 0.00 | 0.01 | 0.01 | 63 | 1015.1 |
| 20260904000204 | 76 | 1 | 0.0 | 1.0 | 0.00 | 0.01 | 0.01 | 63 | 1015.1 |
| 20260904000003 | 76 | 1 | 0.0 | 1.0 | 0.00 | 0.01 | 0.01 | 62 | 1015.1 |
| 20260903235803 | 76 | 1 | 0.0 | 2.0 | 0.00 | 0.01 | 0.01 | 62 | 1015.0 |
| 20260903235603 | 77 | 1 | 0.0 | 2.0 | 0.00 | 0.01 | 0.01 | 62 | 1015.0 |
| 20260903235403 | 77 | 1 | 0.0 | 2.0 | 0.00 | 0.01 | 0.01 | 62 | 1014.9 |
| 20260903235203 | 77 | 2 | 0.0 | 2.0 | 0.00 | 0.01 | 0.01 | 62 | 1014.9 |
| 20260903235003 | 77 | 2 | 0.0 | 3.0 | 0.00 | 0.01 | 0.01 | 62 | 1014.9 |
| 20260903234803 | 77 | 2 | 0.0 | 3.0 | 0.00 | 0.01 | 0.01 | 62 | 1014.9 |
| 20260903234603 | 77 | 2 | 0.0 | 3.0 | 0.00 | 0.01 | 0.01 | 62 | 1015.0 |
| 20260903234403 | 77 | 2 | 0.0 | 3.0 | 0.00 | 0.01 | 0.01 | 62 | 1015.0 |
| 20260903234225 | 77 | 338 | 0.0 | 3.0 | 0.00 | 0.01 | 0.01 | 62 | 1015.1 |
| 20260903234003 | 77 | 325 | 0.0 | 3.0 | 0.00 | 0.01 | 0.01 | 62 | 1015.0 |
| 20260903233803 | 77 | 328 | 1.0 | 3.0 | 0.00 | 0.01 | 0.01 | 61 | 1015.0 |
| 20260903233624 | 77 | 323 | 1.0 | 3.0 | 0.00 | 0.01 | 0.01 | 61 | 1014.9 |
| 20260903233403 | 77 | 319 | 1.0 | 3.0 | 0.00 | 0.01 | 0.01 | 61 | 1014.9 |
| 20260903233203 | 77 | 316 | 1.0 | 3.0 | 0.00 | 0.01 | 0.01 | 61 | 1014.9 |
| 20260903233003 | 77 | 309 | 1.0 | 3.0 | 0.00 | 0.01 | 0.01 | 61 | 1014.8 |
| 20260903232803 | 77 | 297 | 1.0 | 3.0 | 0.00 | 0.01 | 0.01 | 61 | 1014.8 |
| 20260903232603 | 77 | 295 | 1.0 | 3.0 | 0.00 | 0.01 | 0.01 | 61 | 1014.8 |
| 20260903232424 | 77 | 292 | 1.0 | 3.0 | 0.00 | 0.01 | 0.01 | 62 | 1014.8 |
| 20260903232203 | 77 | 283 | 0.0 | 3.0 | 0.00 | 0.01 | 0.01 | 62 | 1014.9 |
| 20260903232024 | 77 | 269 | 0.0 | 3.0 | 0.00 | 0.01 | 0.01 | 62 | 1014.9 |
| 20260903231803 | 77 | 208 | 0.0 | 3.0 | 0.00 | 0.01 | 0.01 | 62 | 1014.9 |
| 20260903231603 | 77 | 207 | 0.0 | 3.0 | 0.00 | 0.01 | 0.01 | 63 | 1014.9 |
| 20260903231424 | 76 | 208 | 0.0 | 3.0 | 0.00 | 0.01 | 0.01 | 63 | 1014.9 |
| 20260903231203 | 76 | 216 | 1.0 | 3.0 | 0.00 | 0.01 | 0.01 | 63 | 1014.8 |
| 20260903231005 | 76 | 212 | 1.0 | 5.0 | 0.00 | 0.01 | 0.01 | 62 | 1014.8 |
| 20260903230803 | 76 | 221 | 1.0 | 5.0 | 0.00 | 0.01 | 0.01 | 63 | 1014.8 |
| 20260903230603 | 76 | 205 | 1.0 | 5.0 | 0.00 | 0.01 | 0.01 | 63 | 1014.7 |
| 20260903230403 | 76 | 194 | 1.0 | 5.0 | 0.00 | 0.01 | 0.01 | 63 | 1014.6 |
| 20260903230203 | 76 | 182 | 1.0 | 5.0 | 0.00 | 0.01 | 0.01 | 63 | 1014.6 |
| 20260903230003 | 76 | 179 | 1.0 | 4.0 | 0.00 | 0.01 | 0.01 | 63 | 1014.6 |
| 20260903225803 | 76 | 199 | 1.0 | 4.0 | 0.00 | 0.01 | 0.01 | 63 | 1014.6 |
| 20260903225603 | 76 | 195 | 1.0 | 4.0 | 0.00 | 0.01 | 0.01 | 63 | 1014.7 |
| 20260903225403 | 76 | 196 | 2.0 | 5.0 | 0.00 | 0.01 | 0.01 | 63 | 1014.7 |
| 20260903225203 | 76 | 188 | 3.0 | 8.0 | 0.00 | 0.01 | 0.01 | 63 | 1014.7 |
| 20260903225003 | 76 | 182 | 3.0 | 8.0 | 0.00 | 0.01 | 0.01 | 63 | 1014.7 |
| 20260903224803 | 76 | 178 | 3.0 | 8.0 | 0.00 | 0.01 | 0.01 | 63 | 1014.8 |
| 20260903224603 | 76 | 177 | 3.0 | 8.0 | 0.00 | 0.01 | 0.01 | 63 | 1014.8 |
| 20260903224403 | 76 | 176 | 2.0 | 8.0 | 0.00 | 0.01 | 0.01 | 62 | 1014.8 |
| 20260903224203 | 76 | 176 | 2.0 | 7.0 | 0.00 | 0.01 | 0.01 | 63 | 1014.8 |
| 20260903224003 | 76 | 182 | 2.0 | 5.0 | 0.00 | 0.01 | 0.01 | 63 | 1014.8 |
| 20260903223803 | 76 | 183 | 1.0 | 5.0 | 0.00 | 0.01 | 0.01 | 63 | 1014.7 |
| 20260903223603 | 76 | 186 | 2.0 | 7.0 | 0.00 | 0.01 | 0.01 | 64 | 1014.6 |
| 20260903223403 | 76 | 187 | 2.0 | 7.0 | 0.00 | 0.01 | 0.01 | 64 | 1014.6 |
| 20260903223203 | 76 | 190 | 2.0 | 7.0 | 0.00 | 0.01 | 0.01 | 64 | 1014.7 |
| 20260903223003 | 76 | 188 | 2.0 | 7.0 | 0.00 | 0.01 | 0.01 | 63 | 1014.7 |
| 20260903222803 | 76 | 187 | 3.0 | 9.0 | 0.01 | 0.01 | 0.01 | 64 | 1014.6 |
| 20260903222603 | 76 | 185 | 3.0 | 9.0 | 0.01 | 0.01 | 0.01 | 65 | 1014.6 |
| 20260903222403 | 75 | 184 | 3.0 | 9.0 | 0.01 | 0.01 | 0.01 | 66 | 1014.5 |
| 20260903222224 | 75 | 182 | 3.0 | 9.0 | 0.01 | 0.01 | 0.01 | 65 | 1014.5 |
| 20260903222024 | 75 | 179 | 4.0 | 11.0 | 0.01 | 0.01 | 0.01 | 64 | 1014.4 |
| 20260903221803 | 75 | 178 | 3.0 | 11.0 | 0.01 | 0.01 | 0.01 | 64 | 1014.5 |
| 20260903221603 | 75 | 179 | 4.0 | 11.0 | 0.01 | 0.01 | 0.01 | 66 | 1014.5 |
| 20260903221403 | 75 | 180 | 4.0 | 11.0 | 0.01 | 0.01 | 0.01 | 65 | 1014.5 |
| 20260903221203 | 75 | 181 | 4.0 | 11.0 | 0.01 | 0.01 | 0.01 | 65 | 1014.5 |
| 20260903221003 | 75 | 183 | 4.0 | 10.0 | 0.01 | 0.01 | 0.01 | 65 | 1014.5 |
| 20260903220803 | 75 | 184 | 4.0 | 10.0 | 0.01 | 0.01 | 0.01 | 65 | 1014.4 |
| 20260903220603 | 76 | 185 | 4.0 | 10.0 | 0.01 | 0.01 | 0.01 | 64 | 1014.3 |
| 20260903220403 | 76 | 183 | 3.0 | 10.0 | 0.01 | 0.01 | 0.01 | 65 | 1014.5 |
| 20260903220203 | 76 | 186 | 2.0 | 10.0 | 0.01 | 0.01 | 0.01 | 64 | 1014.5 |
| 20260903220003 | 77 | 194 | 2.0 | 7.0 | 0.01 | 0.01 | 0.01 | 65 | 1014.5 |
| 20260903215803 | 77 | 198 | 2.0 | 7.0 | 0.01 | 0.01 | 0.01 | 64 | 1014.3 |
| 20260903215603 | 77 | 192 | 2.0 | 7.0 | 0.01 | 0.01 | 0.01 | 66 | 1014.5 |
| 20260903215403 | 77 | 192 | 3.0 | 8.0 | 0.01 | 0.01 | 0.01 | 68 | 1014.5 |
| 20260903215203 | 76 | 188 | 3.0 | 8.0 | 0.01 | 0.01 | 0.01 | 68 | 1014.5 |
| 20260903215024 | 76 | 183 | 3.0 | 8.0 | 0.01 | 0.01 | 0.01 | 67 | 1014.6 |
| 20260903214824 | 76 | 183 | 4.0 | 8.0 | 0.01 | 0.01 | 0.01 | 66 | 1014.5 |
| 20260903214624 | 76 | 182 | 3.0 | 8.0 | 0.01 | 0.01 | 0.01 | 66 | 1014.7 |
| 20260903214403 | 77 | 180 | 1.0 | 6.0 | 0.01 | 0.01 | 0.01 | 66 | 1014.9 |
| 20260903214203 | 77 | 174 | 1.0 | 6.0 | 0.01 | 0.01 | 0.01 | 65 | 1015.1 |
| 20260903214003 | 77 | 182 | 0.0 | 4.0 | 0.01 | 0.01 | 0.01 | 65 | 1015.3 |
| 20260903213803 | 77 | 0 | 0.0 | 0.0 | 0.01 | 0.01 | 0.01 | 65 | 1015.3 |
| 20260903213603 | 77 | 0 | 0.0 | 0.0 | 0.01 | 0.01 | 0.01 | 65 | 1015.3 |
| 20260903213403 | 77 | 0 | 0.0 | 0.0 | 0.01 | 0.01 | 0.01 | 64 | 1015.3 |
| 20260903213203 | 77 | 0 | 0.0 | 0.0 | 0.01 | 0.01 | 0.01 | 64 | 1015.1 |
| 20260903213024 | 77 | 181 | 0.0 | 1.0 | 0.01 | 0.01 | 0.01 | 65 | 1015.1 |
| 20260903212803 | 77 | 181 | 1.0 | 3.0 | 0.00 | 0.00 | 0.00 | 65 | 1015.1 |
| 20260903212624 | 77 | 181 | 1.0 | 3.0 | 0.00 | 0.00 | 0.00 | 65 | 1015.1 |
| 20260903212403 | 77 | 180 | 1.0 | 3.0 | 0.00 | 0.00 | 0.00 | 64 | 1015.0 |
| 20260903212203 | 77 | 180 | 1.0 | 3.0 | 0.00 | 0.00 | 0.00 | 64 | 1015.1 |
| 20260903212003 | 77 | 179 | 1.0 | 3.0 | 0.00 | 0.00 | 0.00 | 64 | 1015.2 |
| 20260903211803 | 77 | 176 | 1.0 | 3.0 | 0.00 | 0.00 | 0.00 | 64 | 1015.4 |
| 20260903211603 | 77 | 170 | 1.0 | 2.0 | 0.00 | 0.00 | 0.00 | 64 | 1015.5 |
| 20260903211403 | 77 | 165 | 1.0 | 3.0 | 0.00 | 0.00 | 0.00 | 64 | 1015.6 |
| 20260903211203 | 78 | 160 | 1.0 | 3.0 | 0.00 | 0.00 | 0.00 | 64 | 1015.7 |
| 20260903211024 | 78 | 157 | 1.0 | 3.0 | 0.00 | 0.00 | 0.00 | 63 | 1015.7 |
| 20260903210803 | 78 | 152 | 1.0 | 3.0 | 0.00 | 0.00 | 0.00 | 64 | 1015.7 |
| 20260903210603 | 78 | 147 | 1.0 | 3.0 | 0.00 | 0.00 | 0.00 | 63 | 1015.7 |
| 20260903210424 | 78 | 131 | 1.0 | 3.0 | 0.00 | 0.00 | 0.00 | 62 | 1015.8 |
| 20260903210203 | 78 | 97 | 1.0 | 4.0 | 0.00 | 0.00 | 0.00 | 63 | 1015.8 |
| 20260903210024 | 78 | 84 | 1.0 | 5.0 | 0.00 | 0.00 | 0.00 | 62 | 1015.8 |
| 20260903205803 | 78 | 83 | 2.0 | 5.0 | 0.00 | 0.00 | 0.00 | 62 | 1015.8 |
| 20260903205603 | 78 | 82 | 2.0 | 5.0 | 0.00 | 0.00 | 0.00 | 61 | 1015.9 |
| 20260903205424 | 78 | 85 | 2.0 | 5.0 | 0.00 | 0.00 | 0.00 | 61 | 1015.9 |
| 20260903205203 | 78 | 84 | 3.0 | 5.0 | 0.00 | 0.00 | 0.00 | 61 | 1015.9 |
| 20260903205003 | 79 | 88 | 3.0 | 6.0 | 0.00 | 0.00 | 0.00 | 60 | 1015.9 |
| 20260903204803 | 79 | 86 | 3.0 | 6.0 | 0.00 | 0.00 | 0.00 | 60 | 1015.8 |
| 20260903204624 | 79 | 86 | 3.0 | 6.0 | 0.00 | 0.00 | 0.00 | 60 | 1015.8 |
| 20260903204403 | 79 | 85 | 3.0 | 7.0 | 0.00 | 0.00 | 0.00 | 59 | 1015.8 |
| 20260903204203 | 79 | 89 | 3.0 | 7.0 | 0.00 | 0.00 | 0.00 | 59 | 1015.7 |
| 20260903204003 | 79 | 87 | 3.0 | 7.0 | 0.00 | 0.00 | 0.00 | 59 | 1015.6 |
| 20260903203803 | 79 | 98 | 3.0 | 7.0 | 0.00 | 0.00 | 0.00 | 58 | 1015.6 |
| 20260903203603 | 80 | 109 | 3.0 | 7.0 | 0.00 | 0.00 | 0.00 | 58 | 1015.6 |
| 20260903203424 | 80 | 123 | 3.0 | 8.0 | 0.00 | 0.00 | 0.00 | 58 | 1015.6 |
| 20260903203203 | 80 | 118 | 3.0 | 8.0 | 0.00 | 0.00 | 0.00 | 57 | 1015.6 |
| 20260903203004 | 80 | 117 | 3.0 | 8.0 | 0.00 | 0.00 | 0.00 | 57 | 1015.6 |
| 20260903202803 | 80 | 104 | 3.0 | 8.0 | 0.00 | 0.00 | 0.00 | 57 | 1015.6 |
| 20260903202603 | 80 | 101 | 3.0 | 8.0 | 0.00 | 0.00 | 0.00 | 57 | 1015.6 |
| 20260903202424 | 80 | 101 | 3.0 | 7.0 | 0.00 | 0.00 | 0.00 | 56 | 1015.6 |
| 20260903202203 | 80 | 114 | 3.0 | 7.0 | 0.00 | 0.00 | 0.00 | 56 | 1015.4 |
| 20260903202024 | 81 | 140 | 3.0 | 7.0 | 0.00 | 0.00 | 0.00 | 56 | 1015.3 |
| 20260903201803 | 81 | 169 | 4.0 | 9.0 | 0.00 | 0.00 | 0.00 | 55 | 1015.3 |
| 20260903201604 | 81 | 170 | 4.0 | 9.0 | 0.00 | 0.00 | 0.00 | 55 | 1015.1 |
| 20260903201404 | 81 | 166 | 4.0 | 9.0 | 0.00 | 0.00 | 0.00 | 55 | 1015.1 |
| 20260903201224 | 81 | 160 | 4.0 | 9.0 | 0.00 | 0.00 | 0.00 | 54 | 1015.0 |
| 20260903201003 | 81 | 141 | 3.0 | 9.0 | 0.00 | 0.00 | 0.00 | 54 | 1015.0 |
| 20260903200824 | 81 | 133 | 3.0 | 9.0 | 0.00 | 0.00 | 0.00 | 55 | 1015.0 |
| 20260903200604 | 81 | 106 | 3.0 | 9.0 | 0.00 | 0.00 | 0.00 | 57 | 1015.0 |
| 20260903200424 | 81 | 94 | 3.0 | 9.0 | 0.00 | 0.00 | 0.00 | 57 | 1015.0 |
| 20260903200203 | 81 | 91 | 4.0 | 10.0 | 0.00 | 0.00 | 0.00 | 57 | 1015.0 |
| 20260903200003 | 81 | 92 | 4.0 | 10.0 | 0.00 | 0.00 | 0.00 | 57 | 1014.9 |
| 20260903195803 | 81 | 89 | 4.0 | 10.0 | 0.00 | 0.00 | 0.00 | 56 | 1014.9 |
| 20260903195603 | 82 | 90 | 3.0 | 10.0 | 0.00 | 0.00 | 0.00 | 56 | 1014.8 |
| 20260903195403 | 82 | 95 | 3.0 | 7.0 | 0.00 | 0.00 | 0.00 | 55 | 1014.8 |
| 20260903195203 | 82 | 96 | 4.0 | 12.0 | 0.00 | 0.00 | 0.00 | 55 | 1014.9 |
| 20260903195003 | 82 | 91 | 4.0 | 12.0 | 0.00 | 0.00 | 0.00 | 55 | 1014.9 |
| 20260903194803 | 82 | 88 | 4.0 | 12.0 | 0.00 | 0.00 | 0.00 | 56 | 1015.0 |
| 20260903194604 | 82 | 88 | 5.0 | 12.0 | 0.00 | 0.00 | 0.00 | 57 | 1014.9 |
| 20260903194403 | 82 | 86 | 6.0 | 14.0 | 0.00 | 0.00 | 0.00 | 56 | 1014.9 |
| 20260903194224 | 82 | 86 | 6.0 | 14.0 | 0.00 | 0.00 | 0.00 | 57 | 1014.8 |
| 20260903194003 | 82 | 88 | 5.0 | 14.0 | 0.00 | 0.00 | 0.00 | 57 | 1014.8 |
| 20260903193804 | 82 | 90 | 6.0 | 14.0 | 0.00 | 0.00 | 0.00 | 56 | 1014.8 |
| 20260903193603 | 82 | 90 | 7.0 | 15.0 | 0.00 | 0.00 | 0.00 | 56 | 1014.8 |
| 20260903193404 | 82 | 97 | 6.0 | 15.0 | 0.00 | 0.00 | 0.00 | 55 | 1014.8 |
| 20260903193205 | 82 | 99 | 6.0 | 15.0 | 0.00 | 0.00 | 0.00 | 55 | 1014.9 |
| 20260903193004 | 82 | 96 | 7.0 | 15.0 | 0.00 | 0.00 | 0.00 | 55 | 1014.9 |
| 20260903192804 | 82 | 96 | 6.0 | 15.0 | 0.00 | 0.00 | 0.00 | 54 | 1014.9 |
| 20260903192603 | 82 | 94 | 7.0 | 14.0 | 0.00 | 0.00 | 0.00 | 56 | 1014.8 |
| 20260903192403 | 82 | 90 | 7.0 | 14.0 | 0.00 | 0.00 | 0.00 | 55 | 1014.9 |
| 20260903192203 | 82 | 89 | 8.0 | 16.0 | 0.00 | 0.00 | 0.00 | 55 | 1014.7 |
| 20260903192003 | 82 | 92 | 9.0 | 20.0 | 0.00 | 0.00 | 0.00 | 55 | 1014.7 |
| 20260903191826 | 82 | 92 | 9.0 | 20.0 | 0.00 | 0.00 | 0.00 | 55 | 1014.7 |
| 20260903191603 | 82 | 92 | 10.0 | 20.0 | 0.00 | 0.00 | 0.00 | 54 | 1014.6 |
| 20260903191403 | 82 | 91 | 11.0 | 20.0 | 0.00 | 0.00 | 0.00 | 54 | 1014.5 |
| 20260903191224 | 83 | 91 | 11.0 | 20.0 | 0.00 | 0.00 | 0.00 | 53 | 1014.6 |
| 20260903191003 | 83 | 89 | 10.0 | 19.0 | 0.00 | 0.00 | 0.00 | 53 | 1014.5 |
| 20260903190805 | 83 | 89 | 10.0 | 19.0 | 0.00 | 0.00 | 0.00 | 53 | 1014.4 |
| 20260903190605 | 83 | 89 | 10.0 | 19.0 | 0.00 | 0.00 | 0.00 | 55 | 1014.4 |
| 20260903190403 | 84 | 89 | 9.0 | 20.0 | 0.00 | 0.00 | 0.00 | 55 | 1014.4 |
| 20260903190206 | 84 | 87 | 10.0 | 20.0 | 0.00 | 0.00 | 0.00 | 56 | 1014.5 |
| 20260903190005 | 84 | 87 | 9.0 | 20.0 | 0.00 | 0.00 | 0.00 | 56 | 1014.6 |
| 20260903185803 | 84 | 85 | 9.0 | 20.0 | 0.00 | 0.00 | 0.00 | 56 | 1014.6 |
| 20260903185624 | 84 | 78 | 10.0 | 20.0 | 0.00 | 0.00 | 0.00 | 56 | 1014.6 |
| 20260903185403 | 85 | 74 | 10.0 | 22.0 | 0.00 | 0.00 | 0.00 | 55 | 1014.8 |
| 20260903185204 | 85 | 72 | 9.0 | 22.0 | 0.00 | 0.00 | 0.00 | 55 | 1014.9 |
| 20260903185006 | 86 | 66 | 8.0 | 22.0 | 0.00 | 0.00 | 0.00 | 56 | 1014.8 |
| 20260903184803 | 86 | 58 | 8.0 | 22.0 | 0.00 | 0.00 | 0.00 | 55 | 1014.9 |
| 20260903184605 | 86 | 57 | 7.0 | 22.0 | 0.00 | 0.00 | 0.00 | 54 | 1014.9 |
| 20260903184403 | 86 | 47 | 6.0 | 19.0 | 0.00 | 0.00 | 0.00 | 54 | 1014.9 |
| 20260903184203 | 87 | 30 | 5.0 | 13.0 | 0.00 | 0.00 | 0.00 | 54 | 1014.8 |
| 20260903184004 | 87 | 26 | 6.0 | 13.0 | 0.00 | 0.00 | 0.00 | 55 | 1014.8 |
| 20260903183805 | 87 | 33 | 6.0 | 14.0 | 0.00 | 0.00 | 0.00 | 54 | 1014.8 |
| 20260903183605 | 87 | 43 | 6.0 | 17.0 | 0.00 | 0.00 | 0.00 | 54 | 1014.7 |
| 20260903183403 | 88 | 39 | 6.0 | 17.0 | 0.00 | 0.00 | 0.00 | 53 | 1014.8 |
| 20260903183204 | 88 | 51 | 7.0 | 17.0 | 0.00 | 0.00 | 0.00 | 54 | 1014.8 |
| 20260903183003 | 88 | 55 | 7.0 | 17.0 | 0.00 | 0.00 | 0.00 | 54 | 1014.8 |
| 20260903182804 | 88 | 53 | 7.0 | 17.0 | 0.00 | 0.00 | 0.00 | 54 | 1014.8 |
| 20260903182604 | 88 | 48 | 7.0 | 12.0 | 0.00 | 0.00 | 0.00 | 55 | 1014.8 |
| 20260903182403 | 88 | 45 | 6.0 | 12.0 | 0.00 | 0.00 | 0.00 | 54 | 1014.7 |
| 20260903182204 | 88 | 36 | 6.0 | 12.0 | 0.00 | 0.00 | 0.00 | 54 | 1014.7 |
| 20260903182024 | 88 | 33 | 6.0 | 11.0 | 0.00 | 0.00 | 0.00 | 54 | 1014.7 |
| 20260903181803 | 88 | 27 | 6.0 | 11.0 | 0.00 | 0.00 | 0.00 | 55 | 1014.8 |
| 20260903181625 | 88 | 24 | 6.0 | 11.0 | 0.00 | 0.00 | 0.00 | 55 | 1014.7 |
| 20260903181424 | 88 | 32 | 5.0 | 11.0 | 0.00 | 0.00 | 0.00 | 55 | 1014.8 |
| 20260903181203 | 88 | 34 | 5.0 | 11.0 | 0.00 | 0.00 | 0.00 | 56 | 1014.7 |
| 20260903181003 | 88 | 35 | 5.0 | 11.0 | 0.00 | 0.00 | 0.00 | 55 | 1014.8 |
| 20260903180803 | 88 | 34 | 5.0 | 11.0 | 0.00 | 0.00 | 0.00 | 55 | 1014.8 |
| 20260903180603 | 88 | 34 | 4.0 | 11.0 | 0.00 | 0.00 | 0.00 | 54 | 1014.9 |
| 20260903180403 | 89 | 32 | 5.0 | 11.0 | 0.00 | 0.00 | 0.00 | 55 | 1014.9 |
| 20260903180203 | 89 | 34 | 5.0 | 14.0 | 0.00 | 0.00 | 0.00 | 57 | 1014.9 |
| 20260903180003 | 89 | 28 | 6.0 | 14.0 | 0.00 | 0.00 | 0.00 | 57 | 1014.9 |
| 20260903175803 | 89 | 31 | 6.0 | 14.0 | 0.00 | 0.00 | 0.00 | 57 | 1014.9 |
| 20260903175424 | 89 | 24 | 5.0 | 14.0 | 0.00 | 0.00 | 0.00 | 53 | 1014.8 |
| 20260903175203 | 89 | 17 | 4.0 | 11.0 | 0.00 | 0.00 | 0.00 | 54 | 1014.8 |
| 20260903175003 | 90 | 15 | 3.0 | 10.0 | 0.00 | 0.00 | 0.00 | 53 | 1014.8 |
| 20260903174803 | 90 | 5 | 2.0 | 8.0 | 0.00 | 0.00 | 0.00 | 56 | 1014.8 |
| 20260903174603 | 90 | 2 | 2.0 | 7.0 | 0.00 | 0.00 | 0.00 | 55 | 1014.6 |
| 20260903174403 | 90 | 2 | 2.0 | 7.0 | 0.00 | 0.00 | 0.00 | 56 | 1014.6 |
| 20260903174203 | 90 | 4 | 2.0 | 9.0 | 0.00 | 0.00 | 0.00 | 55 | 1014.6 |
| 20260903174003 | 90 | 5 | 3.0 | 9.0 | 0.00 | 0.00 | 0.00 | 54 | 1014.6 |
| 20260903173803 | 90 | 5 | 4.0 | 9.0 | 0.00 | 0.00 | 0.00 | 55 | 1014.5 |
| 20260903173603 | 90 | 5 | 4.0 | 10.0 | 0.00 | 0.00 | 0.00 | 54 | 1014.6 |
| 20260903173403 | 90 | 8 | 5.0 | 10.0 | 0.00 | 0.00 | 0.00 | 55 | 1014.5 |
| 20260903173203 | 90 | 9 | 5.0 | 10.0 | 0.00 | 0.00 | 0.00 | 53 | 1014.5 |
| 20260903173003 | 90 | 15 | 5.0 | 10.0 | 0.00 | 0.00 | 0.00 | 54 | 1014.5 |
| 20260903172803 | 90 | 20 | 4.0 | 10.0 | 0.00 | 0.00 | 0.00 | 54 | 1014.3 |
| 20260903172603 | 90 | 23 | 4.0 | 8.0 | 0.00 | 0.00 | 0.00 | 55 | 1014.3 |
| 20260903172424 | 90 | 22 | 4.0 | 8.0 | 0.00 | 0.00 | 0.00 | 56 | 1014.3 |
| 20260903172203 | 90 | 20 | 4.0 | 8.0 | 0.00 | 0.00 | 0.00 | 55 | 1014.2 |
| 20260903172003 | 90 | 16 | 4.0 | 8.0 | 0.00 | 0.00 | 0.00 | 55 | 1014.2 |
| 20260903171803 | 90 | 14 | 4.0 | 8.0 | 0.00 | 0.00 | 0.00 | 56 | 1014.2 |
| 20260903171603 | 90 | 13 | 4.0 | 8.0 | 0.00 | 0.00 | 0.00 | 57 | 1014.1 |
| 20260903171424 | 90 | 10 | 4.0 | 9.0 | 0.00 | 0.00 | 0.00 | 55 | 1014.1 |
| 20260903171203 | 90 | 13 | 3.0 | 9.0 | 0.00 | 0.00 | 0.00 | 55 | 1014.0 |
| 20260903171024 | 90 | 11 | 3.0 | 9.0 | 0.00 | 0.00 | 0.00 | 55 | 1014.0 |
| 20260903170824 | 90 | 5 | 3.0 | 9.0 | 0.00 | 0.00 | 0.00 | 55 | 1014.0 |
| 20260903170603 | 90 | 5 | 4.0 | 9.0 | 0.00 | 0.00 | 0.00 | 53 | 1013.9 |
| 20260903170403 | 90 | 1 | 4.0 | 9.0 | 0.00 | 0.00 | 0.00 | 54 | 1013.9 |
| 20260903170203 | 90 | 354 | 4.0 | 9.0 | 0.00 | 0.00 | 0.00 | 55 | 1013.9 |
| 20260903170003 | 90 | 349 | 5.0 | 11.0 | 0.00 | 0.00 | 0.00 | 53 | 1013.9 |
| 20260903165824 | 90 | 351 | 5.0 | 11.0 | 0.00 | 0.00 | 0.00 | 51 | 1013.9 |
| 20260903165604 | 90 | 348 | 4.0 | 11.0 | 0.00 | 0.00 | 0.00 | 53 | 1013.9 |
| 20260903165404 | 90 | 352 | 4.0 | 11.0 | 0.00 | 0.00 | 0.00 | 54 | 1013.8 |
| 20260903165203 | 90 | 354 | 4.0 | 11.0 | 0.00 | 0.00 | 0.00 | 53 | 1013.8 |
| 20260903165003 | 90 | 351 | 4.0 | 8.0 | 0.00 | 0.00 | 0.00 | 55 | 1013.8 |
| 20260903164825 | 90 | 345 | 4.0 | 8.0 | 0.00 | 0.00 | 0.00 | 55 | 1013.9 |
| 20260903164603 | 90 | 335 | 4.0 | 11.0 | 0.00 | 0.00 | 0.00 | 55 | 1013.9 |
| 20260903164403 | 89 | 329 | 5.0 | 11.0 | 0.00 | 0.00 | 0.00 | 53 | 1013.8 |
| 20260903164203 | 89 | 326 | 5.0 | 11.0 | 0.00 | 0.00 | 0.00 | 53 | 1013.9 |
| 20260903164003 | 89 | 322 | 5.0 | 11.0 | 0.00 | 0.00 | 0.00 | 52 | 1014.0 |
| 20260903163803 | 89 | 320 | 5.0 | 11.0 | 0.00 | 0.00 | 0.00 | 53 | 1014.0 |
| 20260903163603 | 89 | 319 | 5.0 | 9.0 | 0.00 | 0.00 | 0.00 | 54 | 1014.0 |
| 20260903163403 | 89 | 319 | 5.0 | 9.0 | 0.00 | 0.00 | 0.00 | 52 | 1014.0 |
| 20260903163203 | 89 | 319 | 4.0 | 9.0 | 0.00 | 0.00 | 0.00 | 55 | 1014.1 |
| 20260903163024 | 89 | 325 | 4.0 | 8.0 | 0.00 | 0.00 | 0.00 | 56 | 1014.1 |
| 20260903162804 | 88 | 327 | 3.0 | 10.0 | 0.00 | 0.00 | 0.00 | 56 | 1014.1 |
| 20260903162603 | 88 | 335 | 4.0 | 10.0 | 0.00 | 0.00 | 0.00 | 57 | 1014.1 |
| 20260903162403 | 88 | 335 | 3.0 | 10.0 | 0.00 | 0.00 | 0.00 | 58 | 1014.1 |
| 20260903162203 | 88 | 335 | 3.0 | 10.0 | 0.00 | 0.00 | 0.00 | 57 | 1014.2 |
| 20260903162003 | 88 | 335 | 3.0 | 10.0 | 0.00 | 0.00 | 0.00 | 56 | 1014.2 |
| 20260903161824 | 87 | 338 | 3.0 | 7.0 | 0.00 | 0.00 | 0.00 | 57 | 1014.2 |
| 20260903161603 | 87 | 326 | 3.0 | 7.0 | 0.00 | 0.00 | 0.00 | 58 | 1014.2 |
| 20260903161403 | 87 | 321 | 3.0 | 7.0 | 0.00 | 0.00 | 0.00 | 58 | 1014.4 |
| 20260903161203 | 87 | 318 | 3.0 | 9.0 | 0.00 | 0.00 | 0.00 | 57 | 1014.4 |
| 20260903161003 | 87 | 312 | 4.0 | 10.0 | 0.00 | 0.00 | 0.00 | 57 | 1014.5 |
| 20260903160803 | 87 | 313 | 4.0 | 10.0 | 0.00 | 0.00 | 0.00 | 58 | 1014.5 |
| 20260903160603 | 86 | 313 | 5.0 | 10.0 | 0.00 | 0.00 | 0.00 | 58 | 1014.5 |
| 20260903160424 | 86 | 312 | 5.0 | 10.0 | 0.00 | 0.00 | 0.00 | 57 | 1014.5 |
| 20260903160203 | 86 | 309 | 4.0 | 10.0 | 0.00 | 0.00 | 0.00 | 58 | 1014.6 |
| 20260903160003 | 86 | 312 | 4.0 | 8.0 | 0.00 | 0.00 | 0.00 | 57 | 1014.6 |
| 20260903155803 | 86 | 314 | 4.0 | 7.0 | 0.00 | 0.00 | 0.00 | 58 | 1014.6 |
| 20260903155603 | 86 | 316 | 4.0 | 7.0 | 0.00 | 0.00 | 0.00 | 58 | 1014.7 |
| 20260903155403 | 86 | 313 | 3.0 | 7.0 | 0.00 | 0.00 | 0.00 | 58 | 1014.8 |
| 20260903155203 | 86 | 318 | 4.0 | 7.0 | 0.00 | 0.00 | 0.00 | 59 | 1014.8 |
| 20260903155024 | 86 | 317 | 4.0 | 7.0 | 0.00 | 0.00 | 0.00 | 59 | 1014.8 |
| 20260903154803 | 85 | 311 | 4.0 | 7.0 | 0.00 | 0.00 | 0.00 | 58 | 1014.8 |
| 20260903154603 | 85 | 310 | 4.0 | 9.0 | 0.00 | 0.00 | 0.00 | 58 | 1014.8 |
| 20260903154424 | 85 | 312 | 4.0 | 9.0 | 0.00 | 0.00 | 0.00 | 61 | 1014.8 |
| 20260903154203 | 85 | 309 | 4.0 | 9.0 | 0.00 | 0.00 | 0.00 | 60 | 1014.8 |
| 20260903154003 | 85 | 309 | 4.0 | 9.0 | 0.00 | 0.00 | 0.00 | 59 | 1014.9 |
| 20260903153803 | 85 | 308 | 4.0 | 9.0 | 0.00 | 0.00 | 0.00 | 59 | 1014.9 |
| 20260903153603 | 85 | 306 | 4.0 | 7.0 | 0.00 | 0.00 | 0.00 | 60 | 1014.9 |
| 20260903153424 | 85 | 305 | 4.0 | 7.0 | 0.00 | 0.00 | 0.00 | 58 | 1014.9 |
| 20260903153203 | 85 | 302 | 4.0 | 7.0 | 0.00 | 0.00 | 0.00 | 60 | 1014.9 |
| 20260903153003 | 85 | 300 | 4.0 | 7.0 | 0.00 | 0.00 | 0.00 | 60 | 1014.9 |
| 20260903152803 | 85 | 298 | 4.0 | 6.0 | 0.00 | 0.00 | 0.00 | 60 | 1014.8 |
| 20260903152603 | 85 | 299 | 4.0 | 6.0 | 0.00 | 0.00 | 0.00 | 59 | 1014.9 |
| 20260903152403 | 85 | 301 | 4.0 | 6.0 | 0.00 | 0.00 | 0.00 | 59 | 1014.9 |
| 20260903152203 | 84 | 301 | 4.0 | 6.0 | 0.00 | 0.00 | 0.00 | 60 | 1015.0 |
| 20260903152003 | 84 | 302 | 4.0 | 6.0 | 0.00 | 0.00 | 0.00 | 60 | 1014.9 |
| 20260903151803 | 84 | 301 | 4.0 | 6.0 | 0.00 | 0.00 | 0.00 | 60 | 1015.0 |
| 20260903151624 | 84 | 303 | 4.0 | 6.0 | 0.00 | 0.00 | 0.00 | 60 | 1015.0 |
| 20260903151403 | 84 | 301 | 3.0 | 6.0 | 0.00 | 0.00 | 0.00 | 60 | 1015.1 |
| 20260903151203 | 84 | 301 | 3.0 | 6.0 | 0.00 | 0.00 | 0.00 | 59 | 1015.0 |
| 20260903151003 | 84 | 303 | 3.0 | 6.0 | 0.00 | 0.00 | 0.00 | 60 | 1015.0 |
| 20260903150803 | 84 | 306 | 3.0 | 6.0 | 0.00 | 0.00 | 0.00 | 60 | 1015.0 |
| 20260903150603 | 84 | 305 | 2.0 | 5.0 | 0.00 | 0.00 | 0.00 | 60 | 1015.0 |
| 20260903150403 | 84 | 306 | 2.0 | 5.0 | 0.00 | 0.00 | 0.00 | 60 | 1015.0 |
| 20260903150203 | 84 | 305 | 3.0 | 5.0 | 0.00 | 0.00 | 0.00 | 60 | 1015.0 |
| 20260903150003 | 83 | 305 | 3.0 | 5.0 | 0.00 | 0.00 | 0.00 | 60 | 1014.9 |
| 20260903145803 | 83 | 305 | 3.0 | 6.0 | 0.00 | 0.00 | 0.00 | 61 | 1014.9 |
| 20260903145603 | 83 | 303 | 4.0 | 6.0 | 0.00 | 0.00 | 0.00 | 61 | 1014.9 |
| 20260903145403 | 83 | 303 | 4.0 | 6.0 | 0.00 | 0.00 | 0.00 | 61 | 1014.9 |
| 20260903145203 | 83 | 303 | 4.0 | 8.0 | 0.00 | 0.00 | 0.00 | 61 | 1014.9 |
| 20260903145003 | 83 | 303 | 4.0 | 8.0 | 0.00 | 0.00 | 0.00 | 60 | 1014.9 |
| 20260903144803 | 83 | 303 | 4.0 | 8.0 | 0.00 | 0.00 | 0.00 | 60 | 1014.9 |
| 20260903144603 | 83 | 305 | 4.0 | 8.0 | 0.00 | 0.00 | 0.00 | 60 | 1014.8 |
| 20260903144404 | 83 | 307 | 3.0 | 8.0 | 0.00 | 0.00 | 0.00 | 60 | 1014.8 |
| 20260903144203 | 82 | 312 | 3.0 | 6.0 | 0.00 | 0.00 | 0.00 | 61 | 1014.8 |
| 20260903144003 | 82 | 311 | 3.0 | 6.0 | 0.00 | 0.00 | 0.00 | 61 | 1014.8 |
| 20260903143803 | 82 | 311 | 2.0 | 6.0 | 0.00 | 0.00 | 0.00 | 61 | 1014.9 |
| 20260903143603 | 82 | 309 | 2.0 | 6.0 | 0.00 | 0.00 | 0.00 | 62 | 1014.8 |
| 20260903143403 | 82 | 306 | 2.0 | 4.0 | 0.00 | 0.00 | 0.00 | 62 | 1014.8 |
| 20260903143204 | 82 | 303 | 2.0 | 5.0 | 0.00 | 0.00 | 0.00 | 61 | 1014.8 |
| 20260903143004 | 82 | 300 | 2.0 | 5.0 | 0.00 | 0.00 | 0.00 | 61 | 1014.8 |
| 20260903142824 | 82 | 299 | 3.0 | 5.0 | 0.00 | 0.00 | 0.00 | 62 | 1014.8 |
| 20260903142604 | 82 | 300 | 3.0 | 5.0 | 0.00 | 0.00 | 0.00 | 62 | 1014.8 |
| 20260903142403 | 81 | 301 | 3.0 | 5.0 | 0.00 | 0.00 | 0.00 | 62 | 1014.8 |
| 20260903142224 | 81 | 300 | 3.0 | 5.0 | 0.00 | 0.00 | 0.00 | 62 | 1014.8 |
| 20260903142024 | 81 | 302 | 3.0 | 5.0 | 0.00 | 0.00 | 0.00 | 62 | 1014.8 |
| 20260903141803 | 81 | 305 | 3.0 | 5.0 | 0.00 | 0.00 | 0.00 | 62 | 1014.8 |
| 20260903141603 | 81 | 303 | 2.0 | 5.0 | 0.00 | 0.00 | 0.00 | 63 | 1014.7 |
| 20260903141403 | 81 | 303 | 2.0 | 5.0 | 0.00 | 0.00 | 0.00 | 63 | 1014.7 |
| 20260903141203 | 81 | 305 | 2.0 | 5.0 | 0.00 | 0.00 | 0.00 | 63 | 1014.8 |
| 20260903141024 | 81 | 303 | 2.0 | 5.0 | 0.00 | 0.00 | 0.00 | 63 | 1014.8 |
| 20260903140803 | 81 | 299 | 2.0 | 5.0 | 0.00 | 0.00 | 0.00 | 63 | 1014.8 |
| 20260903140603 | 80 | 299 | 1.0 | 5.0 | 0.00 | 0.00 | 0.00 | 64 | 1014.8 |
| 20260903140403 | 80 | 298 | 1.0 | 4.0 | 0.00 | 0.00 | 0.00 | 64 | 1014.8 |
| 20260903140203 | 80 | 293 | 2.0 | 4.0 | 0.00 | 0.00 | 0.00 | 64 | 1014.8 |
| 20260903140003 | 80 | 298 | 2.0 | 4.0 | 0.00 | 0.00 | 0.00 | 64 | 1014.8 |
| 20260903135803 | 80 | 298 | 2.0 | 4.0 | 0.00 | 0.00 | 0.00 | 64 | 1014.8 |
| 20260903135624 | 80 | 299 | 2.0 | 4.0 | 0.00 | 0.00 | 0.00 | 65 | 1014.8 |
| 20260903135403 | 80 | 298 | 2.0 | 4.0 | 0.00 | 0.00 | 0.00 | 64 | 1014.8 |
| 20260903135203 | 80 | 301 | 1.0 | 4.0 | 0.00 | 0.00 | 0.00 | 65 | 1014.8 |
| 20260903135003 | 79 | 298 | 1.0 | 4.0 | 0.00 | 0.00 | 0.00 | 65 | 1014.8 |
| 20260903134824 | 79 | 301 | 0.0 | 4.0 | 0.00 | 0.00 | 0.00 | 65 | 1014.8 |
| 20260903134603 | 79 | 0 | 0.0 | 0.0 | 0.00 | 0.00 | 0.00 | 66 | 1014.8 |
| 20260903134403 | 79 | 0 | 0.0 | 0.0 | 0.00 | 0.00 | 0.00 | 67 | 1014.8 |
| 20260903134203 | 79 | 0 | 0.0 | 0.0 | 0.00 | 0.00 | 0.00 | 67 | 1014.8 |
| 20260903134003 | 79 | 0 | 0.0 | 0.0 | 0.00 | 0.00 | 0.00 | 67 | 1014.9 |
| 20260903133803 | 78 | 0 | 0.0 | 0.0 | 0.00 | 0.00 | 0.00 | 67 | 1014.9 |
| 20260903133603 | 78 | 0 | 0.0 | 0.0 | 0.00 | 0.00 | 0.00 | 67 | 1014.9 |
| 20260903133424 | 78 | 0 | 0.0 | 0.0 | 0.00 | 0.00 | 0.00 | 66 | 1015.0 |
| 20260903133203 | 78 | 0 | 0.0 | 0.0 | 0.00 | 0.00 | 0.00 | 67 | 1014.9 |
| 20260903133003 | 78 | 0 | 0.0 | 0.0 | 0.00 | 0.00 | 0.00 | 68 | 1015.1 |
| 20260903132803 | 78 | 0 | 0.0 | 0.0 | 0.00 | 0.00 | 0.00 | 68 | 1015.0 |
| 20260903132624 | 78 | 0 | 0.0 | 0.0 | 0.00 | 0.00 | 0.00 | 68 | 1015.0 |
| 20260903132403 | 78 | 0 | 0.0 | 0.0 | 0.00 | 0.00 | 0.00 | 68 | 1015.0 |
| 20260903132203 | 78 | 0 | 0.0 | 0.0 | 0.00 | 0.00 | 0.00 | 68 | 1015.1 |
| 20260903132003 | 78 | 0 | 0.0 | 0.0 | 0.00 | 0.00 | 0.00 | 68 | 1015.1 |
| 20260903131803 | 78 | 0 | 0.0 | 0.0 | 0.00 | 0.00 | 0.00 | 68 | 1015.1 |
| 20260903131603 | 78 | 0 | 0.0 | 0.0 | 0.00 | 0.00 | 0.00 | 68 | 1015.0 |
| 20260903131403 | 77 | 0 | 0.0 | 0.0 | 0.00 | 0.00 | 0.00 | 68 | 1015.0 |
| 20260903131203 | 77 | 0 | 0.0 | 0.0 | 0.00 | 0.00 | 0.00 | 68 | 1015.0 |
| 20260903131003 | 77 | 0 | 0.0 | 0.0 | 0.00 | 0.00 | 0.00 | 69 | 1015.0 |
| 20260903130803 | 77 | 0 | 0.0 | 0.0 | 0.00 | 0.00 | 0.00 | 68 | 1015.0 |
| 20260903130603 | 77 | 0 | 0.0 | 0.0 | 0.00 | 0.00 | 0.00 | 69 | 1015.0 |
| 20260903130403 | 77 | 0 | 0.0 | 0.0 | 0.00 | 0.00 | 0.00 | 69 | 1014.9 |
| 20260903130203 | 77 | 0 | 0.0 | 0.0 | 0.00 | 0.00 | 0.00 | 69 | 1014.9 |
| 20260903130003 | 77 | 0 | 0.0 | 0.0 | 0.00 | 0.00 | 0.00 | 69 | 1014.9 |
| 20260903125824 | 77 | 0 | 0.0 | 0.0 | 0.00 | 0.00 | 0.00 | 69 | 1014.9 |
| 20260903125603 | 77 | 0 | 0.0 | 0.0 | 0.00 | 0.00 | 0.00 | 69 | 1014.9 |